     2.10           OBSERVATION DATA    G (GPS)             RINEX VERSION / TYPE
teqc 2000Feb29 20020809 18:34:54UTC                         PGM / RUN BY / DATE
HP-UX 10.20|PA-RISC|cc A.10.32.03|=+|=|                     COMMENT
BIT 2 OF LLI FLAGS DATA COLLECTED UNDER A/S CONDITION       COMMENT
-Unknown-                                                   MARKER NAME
????                                                        MARKER NUMBER
-Unknown- -Unknown-                                         OBSERVER / AGENCY
-Unknown- -Unknown- -Unknown-                               REC # / TYPE / VERS
-Unknown- -Unknown-                                         ANT # / TYPE
   946795.3778 -5284915.8967  3431356.1310                  APPROX POSITION XYZ
        0.0000        0.0000        0.0000                  ANTENNA: DELTA H/E/N
     1     1                                                WAVELENGTH FACT L1/2
     7    L1    L2    C1    P2    P1    S1    S2            # / TYPES OF OBSERV
    30.0000                                                 INTERVAL
Forced Modulo Decimation to 30 seconds                      COMMENT
SNR is mapped to RINEX snr flag value [1-9]                 COMMENT
L1: 1 -> 1; 90 -> 5; 210 -> 9                               COMMENT
L2: 1 -> 1; 150 -> 5; 250 -> 9                              COMMENT
  2002     8     5     0     3    0.0000000     GPS         TIME OF FIRST OBS
                                                            END OF HEADER
 02  8  5  0  3  0.0000000  0  7G 3G25G20G 2G22G 1G13
  -6643839.17648  -5018247.72046  22469292.6904   22469297.5464   22469292.8384
       170.0004        170.0004
  11902525.32448   9950952.07246  22659904.5974   22659912.2524   22659904.8544
       170.0004        170.0004
    -79373.03848    296760.00746  22796682.5954   22796688.2844   22796680.9914
       177.0004        177.0004
  -8012782.32549  -6078185.78147  21049714.0514   21049716.9774   21049713.5044
       196.0004        196.0004
 -12302907.95149  -9376684.97647  19969479.7524   19969483.9164   19969477.4244
       201.0004        200.0004
 -10821069.96748  -8047823.19947  21512338.1754   21512343.3984   21512338.1024
       193.0004        192.0004
  -4682479.61047  -3484827.43745  23891664.5074   23891671.2154   23891664.0994
       149.0004        149.0004
 02  8  5  0  3 30.0000000  0  7G 3G25G20G 2G22G 1G13
  -6695657.09148  -5058625.18946  22459430.7664   22459437.0604   22459430.7114
       166.0004        166.0004
  11987203.16748  10016934.79246  22676013.6714   22676025.9954   22676014.2704
       174.0004        174.0004
     21647.82648    375477.53646  22815903.8864   22815912.0624   22815903.9064
       178.0004        178.0004
  -7974582.72648  -6048419.87546  21056977.1914   21056986.2324   21056976.0544
       183.0004        185.0004
 -12237738.28649  -9325903.31347  19981879.1634   19981885.0404   19981879.2904
       196.0004        199.0004
 -10850747.09448  -8070948.16947  21506691.7784   21506695.2714   21506691.3134
       192.0004        192.0004
  -4744504.73047  -3533158.61745  23879862.9984   23879867.5084   23879863.2354
       149.0004        149.0004
 02  8  5  0  4  0.0000000  0  7G 3G25G20G 2G22G 1G13
  -6747132.10947  -5098735.57945  22449633.0664   22449642.6984   22449632.6704
       151.0004        154.0004
  12072095.92648  10083085.00046  22692168.2854   22692181.2084   22692169.1254
       173.0004        173.0004
    123106.30848    454536.08246  22835209.4774   22835220.2284   22835210.6734
       179.0004        178.0004
  -7935970.77749  -6018332.61947  21064331.5494   21064333.6844   21064330.8104
       197.0004        198.0004
 -12172018.55649  -9274693.21847  19994386.8704   19994391.3424   19994385.1814
       203.0004        203.0004
 -10880006.92948  -8093747.96147  21501121.3344   21501127.7854   21501121.4454
       189.0004        189.0004
  -4806322.50547  -3581328.21245  23868098.9814   23868104.3114   23868098.7924
       148.0004        147.0004
 02  8  5  0  4 30.0000000  0  7G 3G25G20G 2G22G 1G13
  -6798313.72848  -5138617.41246  22439898.7504   22439902.5194   22439896.8084
       167.0004        167.0004
  12157151.63448  10149362.15146  22708357.0434   22708365.9544   22708359.3954
       168.0004        168.0004
    224947.13148    533892.53446  22854590.5504   22854599.6334   22854591.1854
       181.0004        181.0004
  -7896999.94948  -5987965.71446  21071740.2374   21071749.4094   21071739.3494
       182.0004        186.0004
 -12105803.25448  -9223096.80547  20006985.6874   20006991.8194   20006985.5414
       194.0004        197.0004
 -10908899.57448  -8116261.67746  21495620.2364   21495629.5674   21495620.3804
       186.0004        187.0004
  -4867982.83247  -3629375.13045  23856365.1234   23856369.4024   23856364.6244
       148.0004        148.0004
 02  8  5  0  5  0.0000000  0  7G 3G25G20G 2G22G 1G13
  -6849269.10248  -5178322.76446  22430199.5084   22430205.2114   22430199.6054
       170.0004        170.0004
  12242300.72247  10215712.04246  22724571.9204   22724568.8274   22724568.3154
       163.0004        164.0004
    327097.23448    613490.00046  22874031.0944   22874037.6524   22874030.8474
       180.0004        180.0004
  -7857741.72549  -5957374.91347  21079217.3264   21079219.9544   21079216.5694
       197.0004        197.0004
 -12039164.22149  -9171170.32247  20019667.5274   20019672.4714   20019666.4144
       205.0004        205.0004
 -10937492.64648  -8138541.95546  21490180.2824   21490188.7684   21490179.8674
       186.0004        186.0004
  -4929553.56747  -3677352.22145  23844645.9654   23844652.3794   23844647.1824
       145.0004        145.0004
 02  8  5  0  5 30.0000000  0  7G 3G25G20G 2G22G 1G13
  -6899942.06847  -5217808.06845  22420555.2254   22420562.2014   22420555.7394
       161.0004        162.0004
  12327596.31848  10282176.08846  22740800.4354   22740800.7994   22740798.2614
       165.0004        165.0004
    429606.68048    693367.45446  22893540.7794   22893545.0254   22893538.9094
       182.0004        182.0004
  -7818143.99648  -5926519.46746  21086746.6014   21086755.3024   21086746.2764
       184.0004        187.0004
 -11972050.47448  -9118873.85347  20032438.9494   20032443.7014   20032438.3874
       191.0004        195.0004
 -10965730.63248  -8160545.52346  21484804.3344   21484814.3004   21484804.1784
       183.0004        183.0004
  -4990979.37447  -3725216.40845  23832959.1144   23832965.2664   23832958.8474
       149.0004        149.0004
 02  8  5  0  6  0.0000000  0  7G 3G25G20G 2G22G 1G13
  -6950431.23447  -5257150.30845  22410949.2854   22410957.4394   22410947.8284
       156.0004        156.0004
  12412937.41448  10348675.60146  22757031.9344   22757039.7394   22757032.2624
       167.0004        167.0004
    532370.89548    773443.42346  22913097.1594   22913100.0324   22913095.3004
       181.0004        180.0004
  -7778309.72449  -5895479.83847  21094332.8064   21094335.4934   21094331.9144
       196.0004        196.0004
 -11904565.53349  -9066288.20547  20045280.9114   20045285.3394   20045279.9664
       205.0004        205.0004
 -10993712.63748  -8182349.64346  21479480.7274   21479489.6074   21479479.8874
       183.0004        183.0004
  -5052359.37747  -3773044.89745  23821278.1954   23821284.8324   23821277.6724
       149.0004        150.0004
 02  8  5  0  6 30.0000000  0  7G 3G25G20G 2G22G 1G13
  -7000641.98648  -5296275.52146  22401395.0824   22401400.1894   22401393.9204
       169.0004        168.0004
  12498415.85648  10415282.16346  22773294.6064   22773306.8914   22773294.6194
       172.0004        171.0004
    635478.88748    853787.28446  22932718.6104   22932720.8994   22932716.3644
       181.0004        180.0004
  -7738148.21848  -5864185.05547  21101969.2134   21101978.2304   21101969.8294
       185.0004        188.0004
 -11836619.29848  -9013343.09147  20058211.6804   20058215.2984   20058210.2314
       193.0004        195.0004
 -11021344.65148  -8203881.04347  21474226.4664   21474232.2384   21474224.3204
       188.0004        188.0004
  -5113599.51747  -3820764.40645  23809623.5674   23809630.4084   23809623.3494
       151.0004        150.0004
 02  8  5  0  7  0.0000000  0  7G 3G25G20G 2G22G 1G13
  -7050536.91448  -5335154.54746  22391899.2994   22391905.4914   22391899.1394
       171.0004        170.0004
  12584066.72248  10482023.08746  22789595.0914   22789605.5904   22789595.0124
       173.0004        172.0004
    738961.84648    934423.32646  22952411.0104   22952412.0844   22952408.4484
       179.0004        178.0004
  -7697626.15348  -5832609.49847  21109686.0884   21109688.8024   21109684.7954
       194.0004        194.0004
 -11768179.59649  -8960013.43247  20071233.6964   20071238.6734   20071233.2654
       204.0004        205.0004
 -11048589.73048  -8225110.93547  21469041.8334   21469047.2774   21469040.2154
       190.0004        189.0004
  -5174662.77347  -3868346.11245  23798006.0964   23798009.6504   23798004.7244
       150.0004        151.0004
 02  8  5  0  7 30.0000000  0  7G 3G25G20G 2G22G 1G13
  -7100144.70947  -5373809.86046  22382458.2304   22382466.3434   22382458.7624
       163.0004        163.0004
  12669858.87648  10548874.08246  22805922.4524   22805931.6914   22805924.3224
       170.0004        170.0004
    842785.02948   1015324.48246  22972166.3144   22972170.0594   22972164.3624
       179.0004        179.0004
  -7656776.77248  -5800778.68847  21117455.8634   21117462.4144   21117456.3464
       188.0004        190.0004
 -11699279.84749  -8906325.35847  20084346.7624   20084349.7354   20084345.0534
       196.0004        197.0004
 -11075477.35848  -8246062.29547  21463926.7774   21463930.2394   21463925.4294
       193.0004        192.0004
  -5235578.70447  -3915813.01945  23786414.4514   23786418.8794   23786412.6094
       153.0004        153.0004
 02  8  5  0  8  0.0000000  0  7G 3G25G20G 2G22G 1G13
  -7149435.65547  -5412218.44845  22373081.4634   22373086.6944   22373079.3054
       162.0004        161.0004
  12755818.92648  10615855.89746  22822285.3514   22822289.8584   22822285.7414
       166.0004        167.0004
    946972.10148   1096509.17646  22991992.2564   22991996.2294   22991990.7754
       179.0004        179.0004
  -7615574.49448  -5768673.11047  21125298.7244   21125302.9274   21125297.4454
       192.0004        192.0004
 -11629895.82949  -8852259.82547  20097547.8494   20097552.7184   20097547.6934
       202.0004        203.0004
 -11101978.53449  -8266712.49947  21458884.6484   21458887.5364   21458883.6064
       196.0004        195.0004
  -5296318.17147  -3963142.40645  23774854.2334   23774859.7604   23774854.7964
       151.0004        151.0004
 02  8  5  0  8 30.0000000  0  7G 3G25G20G 2G22G 1G13
  -7198448.84948  -5450410.45746  22363753.2484   22363759.0874   22363752.3894
       173.0004        173.0004
  12841905.72548  10682936.47346  22838671.4184   22838670.4584   22838668.0764
       167.0004        167.0004
   1051478.15848   1177942.44446  23011879.0224   23011883.6784   23011876.7374
       179.0004        179.0004
  -7574062.36848  -5736325.88347  21133197.5984   21133202.3514   21133197.3514
       190.0004        191.0004
 -11560070.83249  -8797850.79947  20110837.1574   20110840.3064   20110835.2464
       199.0004        198.0004
 -11128132.36549  -8287092.06447  21453906.9754   21453910.9374   21453906.1284
       197.0004        197.0004
  -5356920.77947  -4010365.16045  23763324.0784   23763328.1974   23763322.6194
       150.0004        150.0004
 02  8  5  0  9  0.0000000  0  7G 3G25G20G 2G22G 1G13
  -7247204.70248  -5488401.88046  22354474.3044   22354480.7334   22354474.1894
       171.0004        172.0004
  12928096.17248  10750097.81146  22855068.3294   22855071.9184   22855067.5804
       171.0004        171.0004
   1156276.73648   1259603.64546  23031819.2784   23031825.9814   23031818.1374
       178.0004        178.0004
  -7532265.07648  -5703756.65947  21141151.7364   21141155.8514   21141149.7744
       190.0004        189.0004
 -11489830.78449  -8743118.21447  20124201.3444   20124206.5834   20124201.2394
       199.0004        200.0004
 -11153960.10049  -8307217.55747  21448992.0894   21448995.9324   21448991.1984
       197.0004        197.0004
  -5417407.40647  -4057497.56845  23751812.6984   23751818.2954   23751813.0554
       152.0004        152.0004
 02  8  5  0  9 30.0000000  0  7G 3G25G20G 2G22G 1G13
  -7295639.48647  -5526143.21946  22345256.7144   22345266.0444   22345256.5654
       162.0004        163.0004
  13014451.33948  10817387.51946  22871496.9824   22871505.1094   22871496.9574
       176.0004        175.0004
   1261425.56048   1341537.75946  23051827.1674   23051835.0764   23051826.9644
       177.0004        177.0004
  -7490123.56948  -5670919.01247  21149171.1924   21149174.9964   21149171.0544
       192.0004        193.0004
 -11419116.65949  -8688016.37947  20137659.5414   20137662.8364   20137657.5774
       201.0004        201.0004
 -11179398.75349  -8327039.84747  21444152.4994   21444154.0514   21444151.6734
       198.0004        197.0004
  -5477714.81547  -4104490.30745  23740337.6104   23740342.2624   23740336.3104
       152.0004        152.0004
 02  8  5  0 10  0.0000000  0  7G 3G25G20G 2G22G 1G13
  -7343777.73948  -5563653.57946  22336099.6444   22336103.9504   22336097.1784
       168.0004        167.0004
  13100943.94348  10884784.34146  22887953.1714   22887964.7244   22887953.8444
       178.0004        178.0004
   1366893.79348   1423720.74046  23071896.1334   23071904.4714   23071896.6424
       177.0004        177.0004
  -7447666.02148  -5637835.29046  21157248.6914   21157254.4874   21157247.1754
       187.0004        187.0004
 -11347958.07749  -8632568.05047  20151199.3384   20151204.1054   20151199.3224
       195.0004        197.0004
 -11204473.41049  -8346578.48447  21439379.9854   21439383.0804   21439379.8194
       199.0004        198.0004
  -5537868.21047  -4151363.08945  23728890.2664   23728893.9584   23728889.9214
       150.0004        150.0004
 02  8  5  0 10 30.0000000  0  7G 3G25G20G 2G22G 1G13
  -7391651.81048  -5600957.92146  22326986.7234   22326992.0494   22326986.3274
       171.0004        171.0004
  13187539.40448  10952261.32646  22904431.5364   22904442.6584   22904432.7444
       178.0004        178.0004
   1472643.48348   1506123.05846  23092019.0074   23092027.2624   23092019.7554
       176.0004        176.0004
  -7404929.36648  -5604533.90247  21165383.4304   21165387.1424   21165383.2224
       193.0004        194.0004
 -11276392.26249  -8576802.53947  20164818.7124   20164822.3434   20164817.1114
       203.0004        203.0004
 -11229216.77549  -8365859.02247  21434670.3824   21434675.6444   21434670.2654
       198.0004        198.0004
  -5597900.44847  -4198141.43845  23717465.0114   23717471.8734   23717465.5974
       151.0004        151.0004
 02  8  5  0 11  0.0000000  0  7G 3G25G20G 2G22G 1G13
  -7439166.22548  -5637982.00946  22317943.9414   22317951.5264   22317944.3434
       169.0004        169.0004
  13274330.51348  11019890.74946  22920949.3164   22920959.0834   22920950.2004
       177.0004        177.0004
   1578764.11748   1588814.43446  23112214.3184   23112221.5794   23112214.3904
       178.0004        177.0004
  -7361821.84348  -5570943.69346  21173583.4194   21173590.3144   21173582.0804
       185.0004        186.0004
 -11204328.63948  -8520649.00147  20178531.8164   20178536.2104   20178531.2904
       192.0004        195.0004
 -11253533.89849  -8384807.43047  21430043.8154   21430047.2924   21430043.6364
       198.0004        198.0004
  -5657716.50547  -4244751.33345  23706082.1264   23706088.0484   23706081.8524
       152.0004        152.0004
 02  8  5  0 11 30.0000000  0  8G 3G25G31G20G 2G22G 1G13
  -7486328.59047  -5674731.87945  22308969.1544   22308979.1584   22308969.5664
       161.0004        162.0004
  13361306.70548  11087664.35946  22937505.1144   22937509.9474   22937505.0754
       176.0004        176.0004
   -438088.71956   -325715.51344  24891480.2474   24891490.2184   24891478.1394
       128.0004        126.0004
   1685241.51248   1671783.79046  23132476.2884   23132483.8364   23132476.5514
       177.0004        177.0004
  -7318356.21349  -5537074.28647  21181858.5774   21181861.5234   21181858.1174
       195.0004        196.0004
 -11131780.16049  -8464117.76247  20192336.6824   20192341.0394   20192335.7114
       205.0004        205.0004
 -11277433.30549  -8403430.31247  21425495.2444   21425498.7154   21425495.1654
       196.0004        195.0004
  -5717324.96947  -4291199.46745  23694739.4824   23694745.4624   23694739.1664
       154.0004        155.0004
 02  8  5  0 12  0.0000000  0  8G 3G25G31G20G 2G22G 1G13
  -7533159.63848  -5711223.61346  22300059.4504   22300065.2324   22300058.6534
       169.0004        169.0004
  13448445.11348  11155564.38746  22954091.6904   22954091.3434   22954088.9034
       176.0004        176.0004
   -514611.89046   -385343.71545  24876922.8884   24876926.1764   24876920.2134
       134.0004        134.0004
   1792049.17248   1755010.50846  23152803.9234   23152808.8324   23152802.6524
       177.0004        176.0004
  -7274556.52848  -5502944.71046  21190188.8414   21190196.3284   21190187.1394
       183.0004        185.0004
 -11058772.13248  -8407228.36747  20206231.5654   20206234.6654   20206230.6044
       193.0004        196.0004
 -11300936.06448  -8421744.13447  21421021.0294   21421026.6844   21421021.1844
       194.0004        193.0004
  -5776746.53947  -4337501.94645  23683432.6464   23683439.2174   23683431.6824
       153.0004        153.0004
 02  8  5  0 12 30.0000000  0  8G 3G25G31G20G 2G22G 1G13
  -7579703.04248  -5747491.04946  22291201.8434   22291206.7084   22291201.3674
       173.0004        172.0004
  13535699.67248  11223554.93546  22970692.6164   22970695.6704   22970691.2494
       177.0004        177.0004
   -591228.92446   -445045.06344  24862339.9274   24862347.4694   24862339.3744
       131.0004        131.0004
   1899137.83848   1838456.19146  23173182.2484   23173187.4724   23173181.4944
       175.0004        175.0004
  -7230471.03448  -5468592.32047  21198582.4574   21198585.3934   21198581.8144
       194.0004        196.0004
 -10985353.35149  -8350018.92747  20220200.2384   20220205.4154   20220199.6734
       205.0004        206.0004
 -11324086.32248  -8439783.30347  21416614.9464   21416622.3914   21416615.3644
       193.0004        193.0004
  -5836025.32747  -4383693.17545  23672149.9054   23672157.9904   23672149.2064
       152.0004        152.0004
 02  8  5  0 13  0.0010000  0  8G 3G25G31G20G 2G22G 1G13
  -7625943.39848  -5783522.38746  22282402.5974   22282409.5104   22282402.5634
       170.0004        171.0004
  13623087.63448  11291649.44446  22987318.8694   22987325.1184   22987318.2804
       181.0004        180.0004
   -667925.55846   -504808.44244  24847739.0164   24847749.8704   24847738.0614
       127.0004        128.0004
   2006521.94348   1922132.08346  23193617.1714   23193622.2274   23193616.7134
       176.0004        176.0004
  -7186085.03448  -5434005.85246  21207023.7374   21207031.6584   21207022.3994
       182.0004        184.0004
 -10911509.02049  -8292477.91847  20234254.9034   20234258.1234   20234253.0614
       195.0004        197.0004
 -11346868.40248  -8457535.56847  21412279.5344   21412286.2524   21412279.7824
       191.0004        191.0004
  -5895146.60147  -4429761.62645  23660900.1834   23660906.8524   23660899.0834
       151.0004        151.0004
 02  8  5  0 13 30.0010000  0  7G 3G25G20G 2G22G 1G13
  -7671840.09747  -5819286.06645  22273668.3394   22273675.8064   22273666.3814
       161.0004        162.0004
  13710638.04848  11359870.55346  23003975.7634   23003985.1904   23003975.7934
       183.0004        183.0004
   2114225.66248   2006057.03146  23214115.6454   23214117.7594   23214112.8654
       175.0004        175.0004
  -7141368.99449  -5399162.14247  21215538.3554   21215540.7494   21215537.4354
       195.0004        196.0004
 -10837212.11049  -8234584.17447  20248390.2554   20248395.7774   20248390.0744
       203.0004        204.0004
 -11369244.15748  -8474971.22146  21408019.3074   21408026.9864   21408020.0054
       187.0004        187.0004
  -5954069.78347  -4475675.71345  23649687.8914   23649694.2814   23649687.3684
       153.0004        153.0004
 02  8  5  0 14  0.0010000  0  7G 3G25G20G 2G22G 1G13
  -7717424.67148  -5854806.44346  22264995.8684   22264999.9324   22264994.2874
       172.0004        172.0004
  13798321.01448  11428194.95746  23020661.3624   23020670.7564   23020661.8164
       187.0004        186.0004
   2222216.57348   2090205.76246  23234666.6224   23234668.2444   23234663.8194
       177.0004        176.0004
  -7096355.16148  -5364086.42346  21224097.9084   21224106.7424   21224096.8844
       180.0004        183.0004
 -10762494.75149  -8176362.92347  20262610.9874   20262614.3314   20262608.8284
       198.0004        198.0004
 -11391244.79148  -8492114.56447  21403833.8374   21403841.6794   21403833.6584
       189.0004        189.0004
  -6012827.09147  -4521460.54045  23638506.0074   23638513.0374   23638505.5624
       153.0004        153.0004
 02  8  5  0 14 30.0010000  0  7G 3G25G20G 2G22G 1G13
  -7762664.06648  -5890057.76946  22256385.4454   22256391.3654   22256385.0874
       175.0004        175.0004
  13886167.45348  11496646.74146  23037378.6364   23037387.7694   23037379.3754
       187.0004        186.0004
   2330521.47548   2174599.14946  23255274.7784   23255277.1814   23255272.8794
       176.0004        176.0004
  -7051014.98649  -5328756.40547  21232732.1854   21232734.9714   21232731.4394
       196.0004        196.0004
 -10687329.30349  -8117792.36147  20276912.5494   20276917.7214   20276912.3524
       200.0004        201.0004
 -11412837.84148  -8508940.31447  21399723.5554   21399733.6574   21399723.4934
       188.0004        189.0004
  -6071386.02547  -4567090.77445  23627365.3624   23627369.1124   23627364.4084
       156.0004        156.0004
 02  8  5  0 15  0.0010000  0  8G 3G25G31G20G 2G22G 1G13
  -7807572.24348  -5925051.05946  22247838.3884   22247846.8574   22247838.7394
       169.0004        170.0004
  13974160.72448  11565212.94046  23054124.5234   23054132.2714   23054125.6434
       185.0004        185.0004
    -41508.82854    -16464.39643  24789267.6154
        74.0004         74.0004
   2439120.49148   2259221.72246  23275940.8014   23275941.7404   23275938.2714
       176.0004        175.0004
  -7005366.31948  -5293185.99346  21241413.1134   21241421.7094   21241411.9264
       180.0004        183.0004
 -10611734.30849  -8058887.25947  20291298.2954   20291303.2544   20291296.7954
       203.0004        202.0004
 -11434037.96048  -8525459.88446  21395687.6914   21395698.5344   21395687.9004
       186.0004        186.0004
  -6129761.02747  -4612577.67845  23616256.2814   23616260.5644   23616256.1214
       156.0004        156.0004
 02  8  5  0 15 30.0010000  0  8G 3G25G31G20G 2G22G 1G13
  -7852139.85848  -5959779.09446  22239359.6654   22239364.6564   22239358.0454
       165.0004        165.0004
  14062307.48848  11633898.74246  23070901.8004   23070905.5914   23070901.5494
       183.0004        182.0004
   -118446.62444    -76415.49444  24774628.6684
        74.0004         95.0004
   2548016.96448   2344076.08846  23296662.5254   23296664.6614   23296659.7454
       174.0004        174.0004
  -6959404.41649  -5257371.52847  21250164.5234   21250167.5044   21250163.9934
       196.0004        196.0004
 -10535705.90049  -7999644.25847  20305765.4224   20305770.9744   20305765.4274
       196.0004        199.0004
 -11454836.30848  -8541666.36446  21391731.6874   21391739.6594   21391730.9504
       185.0004        185.0004
  -6187943.32647  -4657914.42845  23605184.7484   23605188.8714   23605184.2024
       158.0004        158.0004
 02  8  5  0 16  0.0010000  0  8G 3G25G31G20G 2G22G 1G13
  -7896376.85348  -5994249.39646  22230941.4504   22230945.6784   22230940.4814
       174.0004        174.0004
  14150595.76048  11702694.79746  23087705.0814   23087706.3954   23087703.0594
       182.0004        182.0004
   -195437.47144   -136406.98943  24759979.2914
        74.0004         76.0004
   2657195.14348   2429149.95746  23317437.9084   23317441.7104   23317436.1604
       176.0004        175.0004
  -6913142.81248  -5221323.49846  21258962.1874   21258970.6514   21258960.8474
       178.0004        182.0004
 -10459258.44149  -7940074.89547  20320313.1484   20320318.3404   20320311.6434
       205.0004        205.0004
 -11475243.00148  -8557567.63946  21387849.1914   21387856.9094   21387848.2814
       187.0004        187.0004
  -6245942.70547  -4703108.63145  23594148.3714   23594152.4924   23594147.5594
       160.0004        159.0004
 02  8  5  0 16 30.0010000  0  8G 3G25G31G20G 2G22G 1G13
  -7940274.00548  -6028454.83846  22222587.6274   22222594.1014   22222587.3804
       178.0004        178.0004
  14239032.37748  11771606.45146  23104533.1564   23104535.4404   23104531.3034
       184.0004        183.0004
   -272472.14244    -12478.76443  24745308.1844
        74.0004         74.0004
   2766658.49348   2514446.04446  23338267.4474   23338270.8814   23338264.7214
       172.0004        172.0004
  -6866576.72449  -5185038.25847  21267829.4494   21267831.5824   21267828.4184
       195.0004        196.0004
 -10382387.55948  -7880175.44747  20334942.6514   20334946.5094   20334941.9274
       192.0004        196.0004
 -11495249.37048  -8573156.98847  21384042.3964   21384051.2184   21384041.1714
       189.0004        189.0004
  -6303750.22747  -4748153.34545  23583146.7744   23583151.0894   23583146.2364
       159.0004        159.0004
 02  8  5  0 17  0.0010000  0  7G 3G25G20G 2G22G 1G13
  -7983769.90148  -6062347.69646  22214307.9854   22214316.4514   22214308.9994
       166.0004        167.0004
  14327675.83448  11840679.27846  23121398.2034   23121403.7274   23121397.3474
       184.0004        184.0004
   2876461.73048   2600006.98446  23359162.1964   23359165.6234   23359159.9344
       171.0004        171.0004
  -6819649.21448  -5148471.33146  21276752.3964   21276761.7924   21276752.3614
       179.0004        182.0004
 -10305037.56149  -7819902.76547  20349659.9794   20349665.5164   20349658.8144
       206.0004        207.0004
 -11514795.09348  -8588387.38947  21380324.0514   21380331.0224   21380322.4354
       190.0004        190.0004
  -6361305.69647  -4793001.64845  23572193.9194   23572199.5614   23572194.0334
       159.0004        159.0004
 02  8  5  0 17 30.0010000  0  7G 3G25G20G 2G22G 1G13
  -8026963.04748  -6096004.70346  22206090.3024   22206095.7424   22206088.9104
       165.0004        165.0004
  14416425.51848  11909834.88046  23138283.9864   23138291.9364   23138283.8064
       184.0004        184.0004
   2986500.66048   2685751.56446  23380101.1704   23380106.0834   23380099.5524
       171.0004        171.0004
  -6772463.04749  -5111702.91847  21285738.5354   21285741.2284   21285737.5344
       195.0004        196.0004
 -10227311.56948  -7759337.04447  20364453.5584   20364456.7344   20364451.9634
       192.0004        196.0004
 -11533978.96348  -8603335.80147  21376674.8834   21376679.7624   21376672.9734
       190.0004        191.0004
  -6418707.56147  -4837730.26945  23561270.3484   23561277.0554   23561270.7914
       159.0004        159.0004
 02  8  5  0 18  0.0010000  0  8G 3G25G31G20G 2G22G 1G13
  -8069827.96948  -6129405.82546  22197934.5584   22197938.9604   22197933.6994
       177.0004        176.0004
  14505304.21648  11979091.01946  23155195.0134   23155205.1154   23155195.3834
       184.0004        184.0004
    -56593.52854    -28525.47943  24701304.3374
        74.0004         74.0004
   3096794.99148   2771695.14646  23401088.3284   23401094.5344   23401086.6484
       171.0004        171.0004
  -6724996.46748  -5074715.92246  21294765.3404   21294774.1514   21294764.5334
       179.0004        183.0004
 -10149188.92049  -7698462.24147  20379316.0364   20379322.3294   20379315.6974
       205.0004        206.0004
 -11552775.96248  -8617982.73547  21373097.3014   21373103.0444   21373095.2534
       191.0004        191.0004
  -6475930.51947  -4882319.49645  23550381.2604   23550386.5234   23550380.9654
       158.0004        159.0004
 02  8  5  0 18 30.0010000  0  8G 3G25G31G20G 2G22G 1G13
  -8112318.76348  -6162515.43446  22189847.8104   22189855.2274   22189847.9334
       178.0004        178.0004
  14594355.50248  12048481.63046  23172141.0594   23172150.3744   23172141.5734
       184.0004        184.0004
   -133760.75444    -88655.23744  24686625.6094
        74.0004        113.0004
   3207384.33748   2857868.63746  23422133.3214   23422138.4794   23422131.1634
       170.0004        170.0004
  -6677207.97249  -5037478.18147  21303865.1014   21303867.5964   21303863.8434
       195.0004        196.0004
 -10070628.73849  -7637246.55647  20394268.6234   20394272.1114   20394267.1034
       196.0004        197.0004
 -11571140.83948  -8632292.97447  21369603.1414   21369609.3454   21369601.6614
       194.0004        194.0004
  -6532928.95347  -4926733.74945  23539533.5424   23539538.4444   23539533.8764
       157.0004        157.0004
 02  8  5  0 19  0.0010000  0  8G 3G25G31G20G 2G22G 1G13
  -8154451.66947  -6195346.24146  22181828.6484   22181835.9714   22181828.6384
       163.0004        165.0004
  14683560.23548  12117991.80846  23189116.8724   23189126.3814   23189117.2694
       183.0004        183.0004
   -210955.41047   -148806.84245  24671936.1124   24671939.8164   24671933.3154
       138.0004        137.0004
   3318246.37848   2944254.61046  23443228.5804   23443235.4804   23443227.6084
       171.0004        171.0004
  -6629117.99748  -5000005.40446  21313010.0844   21313019.3294   21313009.7454
       179.0004        183.0004
  -9991652.62649  -7575706.66247  20409295.1004   20409300.2674   20409294.5964
       203.0004        204.0004
 -11589090.56749  -8646279.72447  21366188.2684   21366193.3244   21366186.4444
       195.0004        195.0004
  -6589719.90847  -4970986.36145  23528727.0104   23528731.9244   23528726.1764
       156.0004        156.0004
 02  8  5  0 19 30.0010000  0  8G 3G25G31G20G 2G22G 1G13
  -8196247.93548  -6227914.77546  22173878.5624   22173881.3374   22173876.7224
       171.0004        170.0004
  14772894.97548  12187603.28246  23206118.8344   23206126.3004   23206119.4394
       181.0004        181.0004
   -288198.88147   -208996.30245  24657231.3384   24657241.2354   24657230.1954
       135.0004        136.0004
   3429354.13248   3030832.03846  23464369.7014   23464378.6654   23464369.6834
       172.0004        171.0004
  -6580752.15049  -4962317.80147  21322219.5614   21322222.7284   21322218.4854
       195.0004        195.0004
  -9912286.47649  -7513862.98047  20424400.4444   20424403.4654   20424398.0054
       200.0004        199.0004
 -11606646.85848  -8659959.88047  21362846.9934   21362850.8774   21362845.4124
       193.0004        193.0004
  -6646324.60347  -5015093.84345  23517953.9514   23517959.8864   23517953.9254
       155.0004        155.0004
 02  8  5  0 20  0.0010000  0  8G 3G25G31G20G 2G22G 1G13
  -8237665.75448  -6260188.28046  22165994.2824   22166002.0214   22165994.7734
       181.0004        181.0004
  14862399.29748  12257346.90246  23223152.8524   23223157.5084   23223153.4424
       175.0004        176.0004
   -365449.24746   -269191.20044  24642526.0794   24642542.5774   24642525.4884
       129.0004        128.0004
   3540743.41848   3117628.85046  23485565.4854   23485575.3404   23485566.4304
       171.0004        171.0004
  -6532072.40448  -4924385.46146  21331477.0184   21331486.4004   21331476.5294
       178.0004        182.0004
  -9832493.56849  -7451686.59647  20439582.1144   20439587.6224   20439582.1114
       200.0004        201.0004
 -11623768.29849  -8673301.20147  21359590.8874   21359593.1524   21359589.2534
       196.0004        196.0004
  -6702701.54547  -5059023.88445  23507227.2964   23507232.9754   23507227.3984
       156.0004        156.0004
 02  8  5  0 20 30.0010000  0  8G 3G25G31G20G 2G22G 1G13
  -8278749.50448  -6292201.52246  22158176.7204   22158183.7404   22158176.9264
       177.0004        177.0004
  14952026.19248  12327186.03246  23240211.0544   23240213.6034   23240209.9764
       170.0004        171.0004
   -442751.19746   -329426.28244  24627823.5954   24627829.5314   24627818.4464
       127.0004        124.0004
   3652363.80948   3204605.75246  23506806.3714   23506815.5974   23506807.0114
       169.0004        169.0004
  -6483127.66448  -4886246.77747  21340796.7564   21340799.8744   21340795.6834
       194.0004        195.0004
  -9752323.01149  -7389216.11147  20454839.3404   20454843.6014   20454837.5464
       203.0004        203.0004
 -11640499.86749  -8686338.72847  21356406.5384   21356410.7054   21356404.9464
       198.0004        198.0004
  -6758895.39847  -5102811.25745  23496533.2014   23496539.7734   23496532.8024
       159.0004        158.0004
 02  8  5  0 21  0.0010000  0  8G 3G25G31G20G 2G22G 1G13
  -8319502.04047  -6323956.72646  22150422.8724   22150427.9934   22150421.4594
       164.0004        166.0004
  15041770.41448  12397116.57246  23257291.1834   23257291.7664   23257288.3464
       171.0004        171.0004
   -520107.81746   -389703.91044  24613110.0224   24613108.9744   24613104.9874
       131.0004        131.0004
   3764206.44248   3291755.83646  23528089.9774   23528099.0884   23528090.1624
       170.0004        170.0004
  -6433924.76848  -4847906.77846  21350155.2324   21350163.1574   21350154.0844
       178.0004        182.0004
  -9671783.07349  -7326457.64047  20470165.5644   20470169.7264   20470165.3054
       196.0004        198.0004
 -11656845.14149  -8699075.26047  21353295.1774   21353299.8084   21353293.9874
       198.0004        198.0004
  -6814909.18247  -5146458.32845  23485873.7154   23485880.0054   23485874.2524
       158.0004        158.0004
 02  8  5  0 21 30.0010000  0  8G 3G25G31G20G 2G22G 1G13
  -8359891.61248  -6355429.07246  22142736.2224   22142742.6514   22142735.7114
       176.0004        175.0004
  15131661.50948  12467161.53846  23274394.8164   23274397.1424   23274393.0984
       170.0004        171.0004
   -597487.16947   -449999.23445  24598382.3604   24598384.3234   24598379.2344
       135.0004        134.0004
   3876297.42548   3379099.42946  23549419.9784   23549429.0604   23549420.5374
       171.0004        170.0004
  -6384435.87948  -4809344.08147  21359577.2424   21359580.3274   21359575.9184
       194.0004        194.0004
  -9590846.35149  -7263390.12547  20485566.3634   20485571.0134   20485565.0814
       204.0004        204.0004
 -11672772.60449  -8711486.23247  21350265.2014   21350267.3794   21350263.8894
       196.0004        196.0004
  -6870711.22647  -5189940.39845  23475254.2384   23475262.5394   23475254.0434
       156.0004        156.0004
 02  8  5  0 22  0.0010000  0  8G 3G25G31G20G 2G22G 1G13
  -8399961.43448  -6386652.21346  22135110.6474   22135118.4394   22135110.6584
       183.0004        183.0004
  15221653.64448  12537285.25246  23291517.9174   23291521.9864   23291517.0284
       172.0004        172.0004
   -674932.73047   -510346.12645  24583641.9454   24583646.9034   24583641.1704
       135.0004        136.0004
   3988587.38548   3466598.08846  23570789.3004   23570797.2264   23570789.0484
       170.0004        170.0004
  -6334708.35548  -4770595.29446  21369032.9554   21369043.9024   21369033.1384
       177.0004        182.0004
  -9509561.36648  -7200051.11947  20501036.9274   20501039.6414   20501035.9504
       194.0004        197.0004
 -11688326.13849  -8723605.81647  21347305.5964   21347308.0374   21347304.2754
       198.0004        197.0004
  -6926345.28647  -5233291.58745  23464666.3964   23464674.0394   23464666.4714
       155.0004        156.0004
 02  8  5  0 22 30.0010000  0  8G 3G25G31G20G 2G22G 1G13
  -8439641.32948  -6417571.52346  22127558.3394   22127566.0414   22127558.8904
       171.0004        172.0004
  15311815.10748  12607540.91246  23308672.8314   23308679.2144   23308671.9294
       170.0004        170.0004
   -752374.19546   -570689.89245  24568898.4414   24568908.4514   24568901.5844
       133.0004        133.0004
   4101140.61248   3554301.88946  23592205.3914   23592215.2214   23592206.6144
       168.0004        168.0004
  -6284676.44148  -4731609.46347  21378560.7394   21378564.0474   21378559.5554
       194.0004        195.0004
  -9427862.83549  -7136389.95547  20516580.5484   20516586.0414   20516579.6314
       206.0004        206.0004
 -11703435.96849  -8735379.68647  21344429.2994   21344433.7644   21344428.6044
       198.0004        198.0004
  -6981741.13747  -5276457.14145  23454126.4234   23454132.3914   23454126.4604
       158.0004        158.0004
 02  8  5  0 23  0.0010000  0  8G 3G25G31G20G 2G22G 1G13
  -8478971.29448  -6448218.25946  22120075.4364   22120081.0524   22120075.0334
       165.0004        165.0004
  15402102.78348  12677894.92246  23325852.3934   23325860.3444   23325851.9004
       170.0004        171.0004
   -829852.12846   -631062.09644  24554152.0094   24554165.8074   24554153.2674
       129.0004        131.0004
   4213910.80048   3642174.74746  23613664.3544   23613675.0584   23613666.1334
       168.0004        168.0004
  -6234384.41048  -4692420.79146  21388125.6514   21388134.6144   21388124.8644
       178.0004        183.0004
  -9345795.78648  -7072441.60247  20532200.6634   20532203.2664   20532199.3254
       194.0004        197.0004
 -11718142.96849  -8746839.68347  21341631.5324   21341634.8534   21341630.2044
       199.0004        199.0004
  -7036939.35647  -5319468.70845  23443623.7584   23443629.1454   23443623.2324
       160.0004        160.0004
 02  8  5  0 23 30.0010000  0  8G 3G25G31G20G 2G22G 1G13
  -8517884.22848  -6478539.95546  22112672.2984   22112677.9084   22112671.0284
       181.0004        180.0004
  15492581.22048  12748397.57046  23343068.7354   23343078.7054   23343068.5124
       173.0004        173.0004
   -907299.29646   -691410.36245  24539416.8554   24539427.6074   24539416.4734
       133.0004        132.0004
   4326959.34048   3730264.50646  23635176.7674   23635186.9554   23635178.1074
       166.0004        166.0004
  -6183769.37848  -4652980.58247  21397762.7704   21397765.7674   21397761.5944
       194.0004        195.0004
  -9263298.23949  -7008157.78847  20547895.7694   20547901.4694   20547895.2114
       205.0004        205.0004
 -11732380.67949  -8757933.99147  21338922.2914   21338924.6014   21338921.2444
       197.0004        197.0004
  -7091872.88047  -5362274.02245  23433170.7194   23433174.9794   23433170.9394
       160.0004        160.0004
 02  8  5  0 24  0.0010000  0  8G 3G25G31G20G 2G22G 1G13
  -8556408.23148  -6508558.55046  22105338.7064   22105346.5904   22105339.2654
       182.0004        182.0004
  15583220.47648  12819025.53846  23360315.3744   23360326.6184   23360315.9464
       173.0004        173.0004
   -984743.72447   -751756.45445  24524687.6254   24524692.0994   24524683.6144
       141.0004        140.0004
   4440252.18648   3818544.62046  23656736.8034   23656746.5224   23656737.4724
       168.0004        167.0004
  -6132863.19948  -4613313.35946  21407443.3054   21407453.3214   21407443.0794
       178.0004        182.0004
  -9180402.66849  -6943563.87847  20563673.9534   20563676.3924   20563672.0324
       197.0004        198.0004
 -11746177.45049  -8768684.69447  21336296.3434   21336299.0134   21336295.5474
       197.0004        197.0004
  -7146570.03947  -5404895.13246  23422761.6374   23422768.3084   23422761.7444
       164.0004        163.0004
 02  8  5  0 24 30.0010000  0  8G 3G25G31G20G 2G22G 1G13
  -8594539.94948  -6538271.48346  22098082.8794   22098088.7474   22098083.3544
       169.0004        171.0004
  15674021.50448  12889779.53946  23377595.8634   23377605.3404   23377595.4634
       173.0004        173.0004
  -1062182.28547   -812097.93245  24509954.0954   24509954.8244   24509951.9144
       145.0004        145.0004
   4553786.55548   3907012.94546  23678342.3054   23678351.7834   23678342.7344
       168.0004        168.0004
  -6081667.14249  -4573420.39647  21417191.8864   21417195.3924   21417190.7974
       195.0004        196.0004
  -9097111.53849  -6878661.64647  20579520.1854   20579526.1304   20579519.9894
       204.0004        204.0004
 -11759530.89349  -8779089.96547  21333755.2124   21333758.9194   21333754.3044
       199.0004        198.0004
  -7201027.66448  -5447329.60146  23412399.4854   23412405.4964   23412399.7014
       167.0004        167.0004
 02  8  5  0 25  0.0010000  0  8G 3G25G31G20G 2G22G 1G13
  -8632348.68848  -6567732.84646  22090890.1014   22090895.5654   22090888.3464
       173.0004        172.0004
  15764912.41048  12960603.58346  23394890.9644   23394901.7194   23394891.0284
       173.0004        173.0004
  -1139684.30047   -872488.84645  24495200.6204   24495205.6594   24495201.1294
       142.0004        142.0004
   4667487.49148   3995611.04946  23699977.3114   23699988.1954   23699978.6204
       166.0004        166.0004
  -6030254.33448  -4533358.39446  21426970.4404   21426979.1584   21426969.3224
       178.0004        182.0004
  -9013498.42649  -6813508.64447  20595434.0424   20595437.3984   20595432.1774
       201.0004        201.0004
 -11772510.59749  -8789204.02847  21331286.0284   21331289.2124   21331285.1454
       200.0004        200.0004
  -7255315.28948  -5489631.61046  23402070.4324   23402074.4654   23402069.4394
       167.0004        167.0004
 02  8  5  0 25 30.0010000  0  8G 3G25G31G20G 2G22G 1G13
  -8669790.35848  -6596908.09546  22083763.4134   22083770.4664   22083763.3314
       183.0004        182.0004
  15855935.11348  13031530.33246  23412212.1044   23412222.8714   23412213.2054
       173.0004        173.0004
  -1217205.37347   -932894.65545  24480446.7224   24480454.7594   24480444.6864
       135.0004        135.0004
   4781393.35248   4084368.84346  23721653.8504   23721662.7044   23721655.1384
       165.0004        165.0004
  -5978584.78849  -4493096.47847  21436807.5844   21436811.5684   21436806.7474
       195.0004        196.0004
  -8929524.32949  -6748074.21147  20611411.6084   20611416.8414   20611411.5124
       201.0004        201.0004
 -11785072.78549  -8798992.74647  21328895.0644   21328897.9344   21328894.1864
       199.0004        198.0004
  -7309388.57448  -5531766.58846  23391780.5644   23391783.9294   23391779.6844
       165.0004        165.0004
 02  8  5  0 26  0.0010000  0  8G 3G25G31G20G 2G22G 1G13
  -8706862.49648  -6625795.33546  22076708.6924   22076714.2454   22076708.7864
       178.0004        178.0004
  15947089.84648  13102559.95446  23429560.0364   23429568.4794   23429560.9534
       174.0004        174.0004
  -1294742.97446   -993313.34344  24465683.9344   24465698.9494   24465686.1174
       129.0004        130.0004
   4895500.66748   4173283.61346  23743368.8814   23743376.7934   23743369.1264
       166.0004        166.0004
  -5926659.83048  -4452635.40046  21446683.9374   21446692.5534   21446682.5664
       176.0004        181.0004
  -8845191.39349  -6682360.31347  20627460.7994   20627464.7754   20627458.9514
       203.0004        203.0004
 -11797215.46549  -8808454.57247  21326583.8454   21326586.6044   21326582.9084
       197.0004        197.0004
  -7363245.67948  -5573733.08646  23381531.6964   23381534.7984   23381531.2474
       165.0004        165.0004
 02  8  5  0 26 30.0010000  0  8G 3G25G31G20G 2G22G 1G13
  -8743514.76948  -6654355.47246  22069733.7614   22069741.0444   22069733.7534
       166.0004        168.0004
  16038424.04348  13173729.40146  23446942.2004   23446949.1424   23446942.5964
       174.0004        174.0004
  -1372247.25346  -1053706.13244  24450936.6564   24450949.3414   24450934.6114
       128.0004        128.0004
   5009853.28648   4262389.53146  23765128.6364   23765137.6114   23765128.9664
       166.0004        166.0004
  -5874433.76949  -4411939.81347  21456627.1774   21456630.5424   21456626.1544
       196.0004        196.0004
  -8760454.78549  -6616331.72047  20643584.9434   20643589.8434   20643585.0514
       198.0004        199.0004
 -11808889.39049  -8817551.13347  21324363.0604   21324366.0774   21324362.4744
       200.0004        199.0004
  -7416836.40948  -5615492.02746  23371333.8184   23371336.9274   23371333.2134
       165.0004        164.0004
 02  8  5  0 27  0.0010000  0  8G 3G25G31G20G 2G22G 1G13
  -8779767.52148  -6682604.40446  22062837.0914   22062842.4604   22062835.9444
       177.0004        177.0004
  16129915.65248  13245021.52246  23464356.0504   23464359.3184   23464354.6734
       173.0004        173.0004
  -1449738.00746  -1114088.36945  24436194.4574   24436203.8014   24436194.9594
       133.0004        133.0004
   5124425.42148   4351666.48546  23786933.1924   23786939.8724   23786931.9974
       166.0004        166.0004
  -5821930.69148  -4371028.25646  21466613.4874   21466621.8304   21466611.9094
       176.0004        181.0004
  -8675339.41849  -6550008.12747  20659781.6524   20659786.2394   20659780.3314
       204.0004        204.0004
 -11820115.09849  -8826298.44547  21322227.0204   21322230.4664   21322225.8614
       200.0004        200.0004
  -7470180.73448  -5657058.95046  23361180.7124   23361186.2604   23361181.4754
       166.0004        165.0004
 02  8  5  0 27 30.0010000  0  8G 3G25G31G20G 2G22G 1G13
  -8815620.18348  -6710541.41546  22056013.1754   22056019.0694   22056012.1944
       183.0004        183.0004
  16221562.65548  13316434.73846  23481797.4484   23481799.2184   23481795.5024
       174.0004        173.0004
  -1527214.71247  -1174459.70345  24421457.4344   24421461.6514   24421456.9274
       142.0004        142.0004
   5239211.77948   4441110.35046  23808775.8454   23808782.7214   23808775.0844
       165.0004        165.0004
  -5769154.41649  -4329903.91447  21476661.0384   21476664.6874   21476660.1684
       196.0004        197.0004
  -8589849.64848  -6483392.67347  20676051.5814   20676054.3314   20676051.2764
       194.0004        196.0004
 -11830892.56149  -8834696.48447  21320174.9864   21320178.7284   21320174.3964
       199.0004        198.0004
  -7523278.42048  -5698433.70146  23351077.7514   23351081.8304   23351076.9224
       167.0004        167.0004
 02  8  5  0 28  0.0010000  0  8G 3G25G31G20G 2G22G 1G13
  -8851046.70548  -6738146.35146  22049270.8874   22049277.5284   22049270.9344
       177.0004        178.0004
  16313389.26948  13387987.92246  23499270.8914   23499273.1604   23499269.1974
       173.0004        174.0004
  -1604651.24047  -1234799.66545  24406722.2994   24406724.3764   24406722.2504
       146.0004        145.0004
   5354232.64047   4530736.96946  23830661.8524   23830670.9314   23830662.2064
       164.0004        165.0004
  -5716082.36748  -4288549.02946  21486755.4274   21486764.4944   21486754.1724
       177.0004        181.0004
  -8503964.13749  -6416468.93547  20692392.7194   20692397.6474   20692391.4664
       204.0004        204.0004
 -11841196.21349  -8842725.29147  21318215.9794   21318217.5654   21318215.0074
       200.0004        199.0004
  -7576103.32748  -5739595.88446  23341024.1984   23341029.5374   23341024.3424
       167.0004        167.0004
 02  8  5  0 28 30.0010000  0  8G 3G25G31G20G 2G22G 1G13
  -8886088.37148  -6765451.51546  22042604.2154   22042610.0114   22042602.7164
       167.0004        169.0004
  16405351.41948  13459646.72146  23516771.0544   23516772.9844   23516768.7144
       173.0004        173.0004
  -1682088.95447  -1295140.56745  24391980.7564   24391988.7464   24391981.6004
       143.0004        143.0004
   5469440.49348   4620509.29346  23852584.2464   23852594.1374   23852585.9604
       165.0004        164.0004
  -5662760.43949  -4246999.48447  21496907.0324   21496910.6954   21496906.0034
       197.0004        198.0004
  -8417729.26148  -6349272.91747  20708805.8544   20708808.4394   20708804.5284
       194.0004        196.0004
 -11851068.19449  -8850417.70747  21316337.3084   21316339.6814   21316336.2474
       201.0004        201.0004
  -7628697.07248  -5780577.94846  23331016.6474   23331020.7514   23331017.0774
       168.0004        168.0004
 02  8  5  0 29  0.0010000  0  8G 3G25G31G20G 2G22G 1G13
  -8920686.50748  -6792411.09446  22036020.1224   22036025.3654   22036018.8154
       179.0004        179.0004
  16497505.06848  13531454.73846  23534306.1714   23534309.4664   23534304.8164
       174.0004        174.0004
  -1759468.86747  -1355436.44745  24377257.1304   24377264.9964   24377252.1514
       139.0004        140.0004
   5584888.30348   4710468.58046  23874553.8614   23874564.1644   23874554.9344
       167.0004        167.0004
  -5609133.56548  -4205212.27546  21507108.2064   21507115.7724   21507106.4624
       178.0004        182.0004
  -8331091.33749  -6281762.84947  20725288.5534   20725294.8924   20725287.8844
       205.0004        205.0004
 -11860450.24949  -8857728.39047  21314550.8994   21314554.9134   21314549.8734
       200.0004        200.0004
  -7681001.22348  -5821334.32546  23321064.2984   23321066.2634   23321064.3914
       167.0004        166.0004
 02  8  5  0 29 30.0010000  0  8G 3G25G31G20G 2G22G 1G13
  -8954934.29648  -6819097.53446  22029501.7944   22029508.1204   22029501.9594
       184.0004        184.0004
  16589755.62548  13603338.27346  23551858.9924   23551863.6884   23551858.4804
       173.0004        173.0004
  -1836883.93046  -1415759.73345  24362517.3724   24362530.8144   24362518.0684
       134.0004        136.0004
   5700477.09348   4800537.74446  23896550.5764   23896559.9204   23896550.5154
       166.0004        165.0004
  -5555299.26349  -4163263.45247  21517355.8924   21517359.8624   21517355.0614
       196.0004        197.0004
  -8244147.88749  -6214014.73547  20741837.2664   20741840.1494   20741835.6134
       196.0004        198.0004
 -11869435.96549  -8864730.24047  21312841.4744   21312844.7974   21312840.5714
       201.0004        201.0004
  -7733108.56048  -5861937.35946  23311147.1824   23311150.2254   23311147.7024
       165.0004        165.0004
 02  8  5  0 30  0.0010000  0  8G 3G25G31G20G 2G22G 1G13
  -8988809.39548  -6845493.58746  22023055.2834   22023062.7714   22023055.5354
       176.0004        177.0004
  16682122.95248  13675312.80146  23569436.0844   23569440.7084   23569434.9624
       174.0004        174.0004
  -1914311.79947  -1476093.04545  24347789.0174   24347798.2484   24347787.0024
       136.0004        136.0004
   5816223.43048   4890729.66046  23918574.8864   23918585.4804   23918576.8734
       165.0004        165.0004
  -5501239.10248  -4121138.63146  21527639.4094   21527647.9744   21527638.2684
       179.0004        183.0004
  -8156882.04149  -6146015.34047  20758439.4784   20758445.9664   20758439.2294
       204.0004        204.0004
 -11878003.76249  -8871406.40347  21311211.0344   21311213.4244   21311209.9894
       200.0004        200.0004
  -7784996.94148  -5902369.77846  23301273.3064   23301277.2314   23301272.8174
       166.0004        165.0004
 02  8  5  0 30 30.0010000  0  8G 3G25G31G20G 2G22G 1G13
  -9022278.25648  -6871573.27646  22016689.4184   22016693.2104   22016686.6784
       169.0004        169.0004
  16774638.15148  13747402.57146  23587039.6784   23587046.3094   23587039.4644
       175.0004        175.0004
  -1991718.70847  -1536409.99845  24333064.2444   24333069.5984   24333062.8074
       141.0004        141.0004
   5932155.11647   4981066.02146  23940635.3314   23940646.4684   23940636.8954
       163.0004        163.0004
  -5446923.75049  -4078814.95247  21537979.1554   21537983.1044   21537978.3324
       198.0004        199.0004
  -8069264.58549  -6077742.06047  20775116.0294   20775118.9874   20775113.9594
       199.0004        199.0004
 -11886120.43749  -8877731.03647  21309665.5644   21309668.9664   21309664.4144
       198.0004        198.0004
  -7836632.75248  -5942605.38846  23291446.5424   23291452.3364   23291446.5864
       166.0004        166.0004
 02  8  5  0 31  0.0010000  0  8G 3G25G31G20G 2G22G 1G13
  -9055296.56548  -6897301.71746  22010404.6284   22010409.2264   22010403.5694
       182.0004        182.0004
  16867343.52348  13819640.53146  23604680.3494   23604687.6764   23604679.9724
       175.0004        175.0004
  -2069059.88347  -1596675.71845  24318346.3434   24318349.5694   24318346.3884
       144.0004        143.0004
   6048310.88847   5071577.00245  23962739.6264   23962749.8414   23962741.0314
       162.0004        161.0004
  -5392312.37748  -4036260.63146  21548368.9634   21548375.5364   21548366.8864
       183.0004        186.0004
  -7981256.13549  -6009163.99647  20791860.3074   20791866.1434   20791860.0074
       200.0004        201.0004
 -11893742.02349  -8883669.90247  21308215.6374   21308219.3724   21308214.6544
       200.0004        199.0004
  -7887971.31148  -5982609.36546  23281676.1274   23281682.2104   23281677.2344
       166.0004        166.0004
 02  8  5  0 31 30.0010000  0  8G 3G25G31G20G 2G22G 1G13
  -9087870.74048  -6922684.03246  22004204.7064   22004211.0724   22004204.4624
       183.0004        183.0004
  16960230.19148  13892019.74646  23622355.0334   23622362.9734   23622354.8504
       174.0004        174.0004
  -2146341.70547  -1656895.19345  24303635.6574   24303642.7754   24303638.8264
       143.0004        142.0004
   6164678.35347   5162252.93245  23984884.0344   23984893.6854   23984885.1224
       159.0004        159.0004
  -5337416.05949  -3993484.22847  21558817.0864   21558821.6514   21558816.5244
       197.0004        198.0004
  -7892867.79549  -5940290.04147  20808682.2374   20808685.9104   20808680.2604
       201.0004        200.0004
 -11900875.66049  -8889228.54547  21306858.2764   21306861.7864   21306857.3244
       200.0004        200.0004
  -7939019.57148  -6022387.15746  23271965.5284   23271968.7144   23271965.1134
       169.0004        168.0004
 02  8  5  0 32  0.0010000  0  8G 3G25G31G20G 2G22G 1G13
  -9120020.00348  -6947735.33346  21998086.9224   21998094.0034   21998086.8934
       172.0004        173.0004
  17053276.58248  13964523.40546  23640059.8854   23640069.0394   23640059.6094
       174.0004        174.0004
  -2223583.22847  -1717083.29645  24288933.2144   24288943.1324   24288935.3224
       139.0004        140.0004
   6281232.24147   5253074.11945  24007064.1494   24007073.2384   24007064.4034
       161.0004        160.0004
  -5282257.64148  -3950503.66646  21569312.2034   21569317.8094   21569310.0544
       184.0004        186.0004
  -7804124.06249  -5871139.00847  20825568.0584   20825573.7284   20825568.3754
       198.0004        199.0004
 -11907541.26749  -8894422.47247  21305588.8214   21305592.7994   21305587.9854
       198.0004        198.0004
  -7989796.71948  -6061953.67846  23262301.5684   23262304.6484   23262301.6904
       168.0004        168.0004
 02  8  5  0 32 30.0010000  0  8G 3G25G31G20G 2G22G 1G13
  -9151686.36548  -6972410.44446  21992062.7014   21992066.2744   21992060.9204
       171.0004        171.0004
  17146538.68348  14037195.18346  23657807.8644   23657816.8874   23657807.3784
       175.0004        175.0004
  -2300726.22946  -1777194.66645  24274251.5164   24274263.8034   24274252.3334
       134.0004        134.0004
   6398024.89947   5344081.36746  24029289.8874   24029298.2074   24029290.1284
       163.0004        163.0004
  -5226783.38749  -3907276.90347  21579869.6064   21579874.4464   21579869.3334
       197.0004        198.0004
  -7714971.39049  -5801669.46247  20842534.0334   20842538.6624   20842532.2694
       204.0004        204.0004
 -11913681.20049  -8899206.79247  21304420.8364   21304423.9964   21304419.2064
       196.0004        196.0004
  -8040244.72848  -6101263.74846  23252701.7094   23252705.3614   23252701.6744
       168.0004        167.0004
 02  8  5  0 33  0.0010000  0  8G 3G25G31G20G 2G22G 1G13
  -9182947.55148  -6996769.67846  21986112.2314   21986118.5184   21986111.7944
       185.0004        184.0004
  17239936.51848  14109972.71346  23675579.7644   23675589.6474   23675579.4784
       175.0004        175.0004
  -2377848.00547  -1837289.49245  24259580.2274   24259588.2664   24259577.8794
       137.0004        136.0004
   6514972.92647   5435209.66345  24051544.6854   24051552.5234   24051544.5534
       162.0004        162.0004
  -5171074.50248  -3863867.42147  21590469.8214   21590475.8144   21590467.6094
       186.0004        188.0004
  -7625492.44049  -5731945.55247  20859562.5424   20859566.1464   20859562.2834
       197.0004        199.0004
 -11919373.88049  -8903642.59947  21303337.7544   21303341.3064   21303336.5584
       197.0004        197.0004
  -8090441.03848  -6140377.66846  23243147.8884   23243151.7684   23243148.3784
       168.0004        168.0004
 02  8  5  0 33 30.0010000  0  8G 3G25G31G20G 2G22G 1G13
  -9213794.15148  -7020805.86646  21980242.6064   21980249.2704   21980242.7904
       185.0004        185.0004
  17333477.37648  14182861.67046  23693380.2084   23693389.0914   23693380.0514
       171.0004        171.0004
  -2454938.90147  -1897360.21545  24244917.3754   24244919.5174   24244914.5094
       143.0004        142.0004
   6632080.15547   5526462.00646  24073830.8424   24073837.7174   24073829.9004
       163.0004        163.0004
  -5115125.77249  -3820270.92447  21601116.8054   21601122.3164   21601116.6624
       196.0004        197.0004
  -7535682.27149  -5661963.65247  20876651.2304   20876656.3234   20876649.6614
       206.0004        206.0004
 -11924610.29149  -8907722.87147  21302340.8514   21302344.8454   21302339.2544
       196.0004        196.0004
  -8140375.92548  -6179287.88846  23233644.5394   23233650.3974   23233645.1654
       168.0004        167.0004
 02  8  5  0 34  0.0010000  0  8G 3G25G31G20G 2G22G 1G13
  -9244188.51648  -7044489.73546  21974456.7324   21974463.6704   21974456.9624
       166.0004        168.0004
  17427196.50348  14255889.52146  23711213.5364   23711223.2054   23711213.4924
       172.0004        172.0004
  -2531961.24647  -1957377.47645  24230259.7454   24230263.7794   24230258.7314
       151.0004        150.0004
   6749378.29948   5617863.11146  24096153.1254   24096158.5664   24096151.6134
       166.0004        166.0004
  -5058903.51348  -3776461.43947  21611815.7184   21611820.9384   21611813.5204
       188.0004        189.0004
  -7445508.47449  -5591698.33647  20893814.1974   20893815.9624   20893812.8964
       197.0004        199.0004
 -11929353.59948  -8911418.92347  21301435.7484   21301441.5424   21301434.6074
       193.0004        193.0004
  -8190012.11348  -6217965.36746  23224200.4174   23224205.9254   23224200.3974
       170.0004        170.0004
 02  8  5  0 34 30.0020000  0  8G 3G25G31G20G 2G22G 1G13
  -9274114.88148  -7067808.97946  21968766.0274   21968768.7204   21968763.9414
       178.0004        177.0004
  17521111.89848  14329070.30646  23729083.3064   23729095.7474   23729084.7754
       172.0004        172.0004
  -2608899.99747  -2017329.63345  24215616.7944   24215620.7994   24215615.1294
       150.0004        150.0004
   6866882.40648   5709424.72946  24118513.2624   24118519.5064   24118511.2074
       167.0004        166.0004
  -5002392.99349  -3732427.16847  21622569.5664   21622574.5274   21622569.1824
       195.0004        196.0004
  -7354955.47549  -5521137.57547  20911041.2114   20911047.4504   20911040.4654
       206.0004        206.0004
 -11933587.31948  -8914717.90247  21300630.3944   21300635.4654   21300628.6254
       190.0004        190.0004
  -8239333.98848  -6256397.93146  23214815.5434   23214820.7134   23214815.4264
       170.0004        169.0004
 02  8  5  0 35  0.0020000  0  8G 3G25G31G20G 2G22G 1G13
  -9303644.20648  -7090818.69746  21963143.7874   21963150.4984   21963143.3274
       186.0004        186.0004
  17615141.91748  14402340.44146  23746978.1894   23746988.6164   23746978.0914
       171.0004        171.0004
  -2685822.93047  -2077269.49245  24200976.5244   24200983.2384   24200976.0504
       144.0004        145.0004
   6984506.04048   5801079.45646  24140897.0334   24140902.3844   24140894.9964
       166.0004        166.0004
  -4945674.63848  -3688231.12347  21633362.8644   21633367.6814   21633360.5634
       191.0004        191.0004
  -7264107.20149  -5450346.71847  20928333.8404   20928334.9644   20928332.5664
       197.0004        198.0004
 -11937384.82348  -8917676.95647  21299908.2594   21299913.0504   21299906.3454
       192.0004        192.0004
  -8288411.29248  -6294639.93246  23205476.5164   23205480.9324   23205476.3184
       169.0004        168.0004
 02  8  5  0 35 30.0020000  0  8G 3G25G31G20G 2G22G 1G13
  -9332696.22948  -7113456.54146  21957614.8814   21957622.2594   21957615.0144
       179.0004        180.0004
  17709368.89848  14475764.02846  23764908.1684   23764918.7394   23764908.7784
       169.0004        168.0004
  -2762650.78847  -2137135.25045  24186353.3394   24186362.3534   24186351.0554
       139.0004        139.0004
   7102328.77247   5892889.33046  24163318.8214   24163323.5714   24163316.2974
       163.0004        163.0004
  -4888669.45948  -3643811.40047  21644209.1414   21644215.4794   21644209.4794
       194.0004        196.0004
  -7172884.07849  -5379263.75247  20945688.1424   20945694.0644   20945687.5414
       205.0004        205.0004
 -11940665.23548  -8920233.08347  21299282.8494   21299289.3774   21299281.5464
       191.0004        191.0004
  -8337164.21048  -6332629.14846  23196196.1434   23196203.3974   23196196.8644
       168.0004        168.0004
 02  8  5  0 36  0.0020000  0  8G 3G25G31G20G 2G22G 1G13
  -9361313.54248  -7135755.72246  21952172.4344   21952175.9784   21952170.8284
       170.0004        171.0004
  17803748.06248  14549306.20046  23782867.8834   23782878.4724   23782868.3904
       169.0004        169.0004
  -2839426.07747  -2196960.07745  24171744.8824   24171751.0964   24171742.8264
       141.0004        141.0004
   7220302.09947   5984816.53545  24185769.3544   24185771.6564   24185766.8214
       162.0004        162.0004
  -4831423.88548  -3599204.54447  21655104.5494   21655108.7044   21655102.2514
       193.0004        193.0004
  -7081333.44349  -5307925.62647  20963114.4164   20963115.1914   20963112.5524
       197.0004        198.0004
 -11943472.11848  -8922420.23747  21298747.7564   21298754.9024   21298746.1604
       189.0004        190.0004
  -8385635.71648  -6370399.09946  23186973.1204   23186979.1634   23186973.4544
       168.0004        167.0004
 02  8  5  0 36 30.0020000  0  8G 3G25G31G20G 2G22G 1G13
  -9389506.72048  -7157724.40546  21946804.9034   21946811.7694   21946803.1224
       180.0004        180.0004
  17898267.21748  14622957.46746  23800854.8044   23800865.3524   23800855.7394
       170.0004        170.0004
  -2916158.85547  -2256751.74645  24157148.6414   24157151.9484   24157145.6704
       150.0004        148.0004
   7338409.90347   6076848.54245  24208243.2554   24208248.1884   24208241.9304
       163.0004        162.0004
  -4773952.45948  -3554421.50847  21666039.6944   21666045.0394   21666039.7424
       193.0004        195.0004
  -6989470.75049  -5236344.26547  20980590.7524   20980596.3464   20980590.3584
       204.0004        203.0004
 -11945816.46948  -8924246.98547  21298300.9984   21298308.8284   21298299.8704
       188.0004        188.0004
  -8433835.29748  -6407957.15146  23177800.8234   23177805.8284   23177801.0324
       167.0004        167.0004
 02  8  5  0 37  0.0020000  0  8G 3G25G31G20G 2G22G 1G13
  -9417272.19448  -7179359.73246  21941520.8034   21941527.2774   21941521.0154
       186.0004        186.0004
  17992927.51648  14696718.72646  23818867.7984   23818878.7334   23818868.5334
       171.0004        171.0004
  -2992845.17147  -2316507.21145  24142556.0554   24142559.3494   24142554.4904
       149.0004        150.0004
   7456650.26447   6168983.83545  24230743.8934   24230748.8574   24230742.0314
       161.0004        161.0004
  -4716255.06049  -3509462.58647  21677019.5454   21677024.7594   21677017.9734
       195.0004        194.0004
  -6897296.79449  -5164520.46347  20998134.4154   20998136.7814   20998132.5274
       199.0004        199.0004
 -11947695.15948  -8925710.86647  21297942.3864   21297950.9424   21297942.1084
       187.0004        188.0004
  -8481759.74648  -6445300.83546  23168682.9734   23168686.9464   23168682.3654
       169.0004        169.0004
 02  8  5  0 37 30.0020000  0  8G 3G25G31G20G 2G22G 1G13
  -9444638.55148  -7200684.01446  21936313.2364   21936318.8544   21936313.4574
       177.0004        178.0004
  18087697.56848  14770565.51346  23836901.8594   23836912.4644   23836902.9864
       171.0004        171.0004
  -3069513.28047  -2376248.49545  24127962.0934   24127969.0334   24127963.0004
       149.0004        148.0004
   7574988.73647   6261195.60645  24253263.6244   24253267.2554   24253262.2744
       160.0004        160.0004
  -4658364.79248  -3464353.18647  21688035.2614   21688041.0394   21688034.9984
       192.0004        194.0004
  -6804845.17449  -5092480.18347  21015724.0004   21015729.4164   21015723.8144
       201.0004        202.0004
 -11949137.64748  -8926834.84847  21297668.3014   21297676.8684   21297667.4234
       187.0004        188.0004
  -8529437.63848  -6482452.38146  23159610.7494   23159614.7844   23159610.8424
       172.0004        172.0004
 02  8  5  0 38  0.0020000  0  8G 3G25G31G20G 2G22G 1G13
  -9471493.25448  -7221609.79546  21931204.4134   21931209.8834   21931202.1774
       170.0004        171.0004
  18182688.28748  14844584.22246  23854978.3884   23854989.3434   23854979.0574
       172.0004        171.0004
  -3146050.26447  -2435887.57745  24113400.6584   24113404.4954   24113398.0814
       145.0004        145.0004
   7693532.16647   6353567.08345  24275822.3574   24275825.0644   24275820.2964
       158.0004        158.0004
  -4600172.61049  -3419008.72747  21699110.0284   21699114.5224   21699108.4484
       196.0004        196.0004
  -6712007.91349  -5020139.52947  21033392.4884   21033395.7454   21033390.6814
       201.0004        200.0004
 -11950031.98448  -8927531.71647  21297497.0444   21297506.8764   21297497.6584
       188.0004        188.0004
  -8576756.20248  -6519323.94646  23150605.3344   23150611.1794   23150605.5714
       173.0004        173.0004
 02  8  5  0 38 30.0020000  0  8G 3G25G31G20G 2G22G 1G13
  -9497897.65648  -7242184.57846  21926180.2864   21926184.7454   21926178.9074
       186.0004        186.0004
  18277836.37848  14918725.55846  23873084.9604   23873095.5474   23873085.2254
       174.0004        174.0004
  -3222516.51047  -2495471.59445  24098839.5474   24098851.7254   24098840.5084
       141.0004        142.0004
   7812214.27047   6446046.61945  24298406.8734   24298410.0614   24298404.3674
       161.0004        161.0004
  -4541743.51848  -3373479.46247  21710227.1044   21710232.9574   21710226.7104
       190.0004        192.0004
  -6618850.65549  -4947549.39847  21051118.3234   21051123.0504   21051118.1074
       198.0004        199.0004
 -11950439.41048  -8927849.17747  21297420.8954   21297429.2874   21297421.0364
       189.0004        190.0004
  -8623776.12448  -6555962.81146  23141656.4774   23141663.3414   23141656.7744
       171.0004        171.0004
 02  8  5  0 39  0.0020000  0  8G 3G25G31G20G 2G22G 1G13
  -9523838.14148  -7262397.78946  21921241.1634   21921247.6514   21921241.5044
       184.0004        184.0004
  18373153.42648  14992998.54746  23891222.5634   23891233.5864   23891223.5074
       174.0004        174.0004
  -3298898.05147  -2554989.58045  24084308.8824   24084316.3484   24084308.0624
       142.0004        142.0004
   7931042.71147   6538640.20446  24321018.2804   24321023.2214   24321017.1454
       163.0004        163.0004
  -4483067.67349  -3327758.12647  21721394.3754   21721398.8074   21721392.7884
       197.0004        197.0004
  -6525364.38049  -4874703.02747  21068908.3124   21068913.2344   21068906.8194
       202.0004        202.0004
 -11950347.08148  -8927777.20047  21297439.9144   21297446.8354   21297439.7824
       190.0004        191.0004
  -8670483.75348  -6592358.33746  23132768.2294   23132775.1434   23132768.4124
       171.0004        170.0004
 02  8  5  0 39 30.0020000  0  8G 3G25G31G20G 2G22G 1G13
  -9549341.97548  -7282270.81146  21916388.1484   21916395.3594   21916388.7734
       175.0004        176.0004
  18468609.97948  15067380.26746  23909387.4074   23909398.3714   23909388.2334
       174.0004        174.0004
  -3375221.82347  -2614462.55645  24069790.6444   24069795.6374   24069788.0674
       148.0004        148.0004
   8049984.44947   6631322.05045  24343650.9464   24343656.2934   24343649.2904
       162.0004        162.0004
  -4424176.47648  -3281868.79147  21732599.3884   21732605.6994   21732599.1364
       189.0004        192.0004
  -6431581.33449  -4801625.27447  21086756.6794   21086759.3984   21086755.9244
       197.0004        199.0004
 -11949782.89048  -8927337.55147  21297547.6364   21297554.2274   21297547.8794
       192.0004        192.0004
  -8716906.07848  -6628531.52746  23123934.4414   23123940.2564   23123935.1874
       171.0004        171.0004
 02  8  5  0 40  0.0020000  0  8G 3G25G31G20G 2G22G 1G13
  -9574299.52448  -7301718.26246  21911641.6784   21911645.5404   21911639.3654
       175.0004        175.0004
  18564313.58648  15141954.47246  23927599.1234   23927610.2484   23927599.2994
       172.0004        173.0004
  -3451377.78647  -2673804.74245  24055299.8644   24055301.7414   24055297.7584
       150.0004        150.0004
   8169143.52247   6724173.26045  24366328.1044   24366331.3994   24366325.7474
       161.0004        161.0004
  -4364963.95149  -3235729.26047  21743868.9284   21743873.0214   21743867.3484
       198.0004        198.0004
  -6337396.46549  -4728234.53247  21104676.5534   21104682.2804   21104675.3334
       204.0004        204.0004
 -11948637.83248  -8926445.27047  21297766.5944   21297772.0084   21297766.2914
       192.0004        192.0004
  -8762933.51248  -6664397.01346  23115176.5324   23115181.1934   23115177.4144
       172.0004        172.0004
 02  8  5  0 40 30.0020000  0  8G 3G25G31G20G 2G22G 1G13
  -9598759.97848  -7320778.25446  21906984.6144   21906990.1664   21906983.9274
       185.0004        184.0004
  18660213.25748  15216681.43546  23945848.1454   23945859.5884   23945848.8414
       172.0004        172.0004
  -3527414.19547  -2733053.75245  24040830.5004   24040832.2664   24040829.5634
       153.0004        153.0004
   8288465.73547   6817151.57245  24389032.0694   24389037.7684   24389030.7534
       160.0004        159.0004
  -4305482.89248  -3189380.29647  21755185.4044   21755191.8634   21755185.1964
       185.0004        189.0004
  -6242863.16449  -4654572.18147  21122669.3484   21122671.5294   21122668.4794
       196.0004        198.0004
 -11946961.23049  -8925138.80447  21298085.9504   21298090.7454   21298086.1624
       195.0004        194.0004
  -8808614.17548  -6699992.28046  23106485.2494   23106488.4784   23106485.1544
       173.0004        173.0004
 02  8  5  0 41  0.0020000  0  8G 3G25G31G20G 2G22G 1G13
  -9622794.04648  -7339505.93946  21902411.2644   21902416.6214   21902411.1894
       185.0004        185.0004
  18756236.02648  15291504.31546  23964121.4114   23964131.8204   23964121.7764
       170.0004        170.0004
  -3603401.45947  -2792264.51445  24026365.2424   24026372.6234   24026365.3364
       149.0004        149.0004
   8407874.41147   6910197.23945  24411751.4764   24411761.0704   24411752.2574
       159.0004        158.0004
  -4245807.80949  -3142880.32347  21766543.5064   21766547.2074   21766542.1354
       198.0004        198.0004
  -6148056.85449  -4580697.17547  21140706.3584   21140712.0444   21140705.4494
       204.0004        204.0004
 -11944824.54549  -8923473.82847  21298494.0634   21298497.7464   21298493.7864
       196.0004        196.0004
  -8854019.29348  -6735372.85146  23097845.5504   23097848.6324   23097844.6444
       173.0004        173.0004
 02  8  5  0 41 30.0020000  0  8G 3G25G31G20G 2G22G 1G13
  -9646372.25448  -7357878.50246  21897923.9764   21897931.0534   21897923.2174
       170.0004        172.0004
  18852409.19448  15366444.39946  23982423.0284   23982432.8284   23982423.0664
       170.0004        170.0004
  -3679309.39347  -2851413.47545  24011916.0604   24011925.3184   24011916.2594
       144.0004        144.0004
   8527393.99447   7003329.31645  24434494.2764   24434505.7244   24434494.9814
       157.0004        157.0004
  -4185912.80748  -3096208.83646  21777939.3244   21777945.2594   21777938.3824
       183.0004        187.0004
  -6052952.60949  -4506589.94647  21158809.2234   21158810.3724   21158807.7954
       196.0004        197.0004
 -11942198.84049  -8921427.79847  21298993.9044   21298997.3584   21298993.6364
       198.0004        198.0004
  -8899118.66648  -6770515.18246  23089261.4314   23089267.6034   23089261.9254
       176.0004        176.0004
 02  8  5  0 42  0.0020000  0  8G 3G25G31G20G 2G22G 1G13
  -9669467.82448  -7375875.09646  21893531.9194   21893534.1624   21893529.8574
       180.0004        180.0004
  18948757.60848  15441521.03946  24000756.4324   24000766.9914   24000757.6134
       168.0004        168.0004
  -3755110.64247  -2910479.27845  23997494.0734   23997502.1964   23997493.1634
       144.0004        144.0004
   8647045.36747   7096564.09345  24457261.6744   24457273.3344   24457263.7974
       156.0004        156.0004
  -4125775.08449  -3049348.32747  21789384.9074   21789389.1954   21789383.7074
       199.0004        200.0004
  -5957528.20949  -4432233.28747  21176962.5584   21176968.8944   21176961.8674
       205.0004        205.0004
 -11939057.85549  -8918980.25447  21299591.5514   21299594.9814   21299591.0604
       197.0004        197.0004
  -8943885.62948  -6805398.49846  23080743.8714   23080748.2914   23080743.3294
       177.0004        176.0004
 02  8  5  0 42 30.0020000  0  8G 3G25G31G20G 2G22G 1G13
  -9692102.68848  -7393512.47546  21889221.7374   21889227.4954   21889221.5664
       188.0004        187.0004
  19045257.85148  15516716.00246  24019120.2904   24019131.4664   24019120.3124
       167.0004        167.0004
  -3830826.29947  -2969478.45345  23983088.9774   23983094.2784   23983088.1024
       150.0004        149.0004
   8766801.71047   7189880.65145  24480051.9094   24480062.0574   24480053.1674
       155.0004        155.0004
  -4065419.92148  -3002318.29747  21800868.9694   21800874.3204   21800867.8484
       184.0004        188.0004
  -5861809.68449  -4357647.43047  21195182.7104   21195184.1644   21195181.0784
       196.0004        198.0004
 -11935424.07449  -8916148.71747  21300283.3164   21300286.4154   21300282.6354
       198.0004        197.0004
  -8988340.58648  -6840038.69646  23072285.2804   23072288.7014   23072285.0744
       178.0004        177.0004
 02  8  5  0 43  0.0020000  0  8G 3G25G31G20G 2G22G 1G13
  -9714303.57448  -7410811.74946  21884995.4084   21885003.1374   21884996.0934
       180.0004        181.0004
  19141881.13948  15592006.81146  24037507.9524   24037517.8204   24037508.4134
       169.0004        168.0004
  -3906482.59147  -3028431.28045  23968695.5564   23968697.2574   23968693.9734
       155.0004        154.0004
   8886630.53147   7283253.68945  24502856.9414   24502864.8534   24502856.1914
       155.0004        155.0004
  -4004878.08849  -2955142.86147  21812390.7954   21812395.1184   21812389.6594
       200.0004        200.0004
  -5765828.66049  -4282857.01747  21213441.6694   21213448.1774   21213440.9304
       204.0004        204.0004
 -11931324.69049  -8912954.37547  21301063.9514   21301066.1034   21301062.9464
       198.0004        197.0004
  -9032510.74048  -6874456.94946  23063880.5724   23063881.7294   23063880.7114
       177.0004        176.0004
 02  8  5  0 43 30.0020000  0  8G 3G25G31G20G 2G22G 1G13
  -9736013.71548  -7427728.73946  21880869.1604   21880871.8254   21880867.4064
       174.0004        175.0004
  19238681.84948  15667435.90146  24055929.5594   24055938.7614   24055929.5354
       171.0004        171.0004
  -3982022.35947  -3087293.32345  23954318.8794   23954324.1464   23954317.9944
       154.0004        154.0004
   9006583.03247   7376723.08845  24525684.9504   24525690.4904   24525682.7754
       155.0004        155.0004
  -3944096.49948  -2907780.58747  21823956.3604   21823961.5494   21823954.7904
       185.0004        188.0004
  -5669532.79549  -4207821.30347  21231771.3404   21231772.6254   21231769.5184
       197.0004        198.0004
 -11926703.64749  -8909353.54447  21301944.0724   21301945.7194   21301942.8584
       199.0004        199.0004
  -9076339.38948  -6908609.09446  23055539.7384   23055541.1444   23055539.5044
       177.0004        176.0004
 02  8  5  0 44  0.0020000  0  8G 3G25G31G20G 2G22G 1G13
  -9757211.24948  -7444246.23646  21876832.2234   21876837.6274   21876830.7154
       182.0004        182.0004
  19335680.10048  15743018.92746  24074386.1944   24074396.9334   24074386.6384
       170.0004        169.0004
  -4057422.99347  -3146047.00045  23939968.4354   23939972.1524   23939967.4814
       150.0004        150.0004
   9126675.68447   7470301.69545  24548541.7464   24548544.0714   24548538.3214
       155.0004        155.0004
  -3883057.05449  -2860217.36347  21835571.8684   21835576.9374   21835571.0954
       199.0004        200.0004
  -5572904.96249  -4132526.85247  21250153.9634   21250160.1344   21250153.2564
       203.0004        203.0004
 -11921539.69849  -8905329.66647  21302926.5594   21302928.1134   21302925.4704
       198.0004        198.0004
  -9119804.19348  -6942477.72446  23047268.1514   23047270.0014   23047268.0784
       175.0004        175.0004
 02  8  5  0 44 30.0020000  0  8G 3G25G31G20G 2G22G 1G13
  -9777943.67748  -7460401.25947  21872886.1284   21872893.3274   21872886.4334
       191.0004        191.0004
  19432826.17648  15818717.12546  24092872.1884   24092882.9544   24092872.8564
       166.0004        167.0004
  -4132730.91447  -3204728.40545  23925633.6764   23925642.9344   23925634.2984
       146.0004        146.0004
   9246855.91547   7563948.57345  24571411.3304   24571413.4324   24571407.8564
       157.0004        157.0004
  -3821810.13048  -2812492.51647  21847226.7044   21847231.6394   21847224.9044
       187.0004        189.0004
  -5475996.46249  -4057013.78947  21268599.1304   21268601.4834   21268597.5114
       198.0004        198.0004
 -11915880.53149  -8900919.90947  21304002.6184   21304004.7404   21304001.4484
       197.0004        197.0004
  -9162951.91748  -6976099.29046  23039057.0424   23039060.2914   23039056.7914
       176.0004        176.0004
 02  8  5  0 45  0.0020000  0  8G 3G25G31G20G 2G22G 1G13
  -9798172.16948  -7476163.61846  21869036.6534   21869043.1184   21869037.5044
       180.0004        182.0004
  19530157.45748  15894559.64646  24111395.2904   24111404.6554   24111394.5944
       167.0004        166.0004
  -4207906.49247  -3263306.73245  23911329.7294   23911338.3594   23911327.1864
       146.0004        146.0004
   9367157.18647   7657689.79045  24594305.3334   24594306.0154   24594301.7464
       158.0004        157.0004
  -3760320.66749  -2764578.59347  21858926.8284   21858932.6104   21858926.7524
       198.0004        199.0004
  -5378773.01649  -3981255.20947  21287096.1494   21287102.6394   21287095.8544
       202.0004        202.0004
 -11909687.82249  -8896094.40547  21305180.6094   21305183.6384   21305179.0024
       195.0004        195.0004
  -9205742.92648  -7009442.88746  23030913.8534   23030918.0014   23030913.9764
       177.0004        176.0004
 02  8  5  0 45 30.0020000  0  8G 3G25G31G20G 2G22G 1G13
  -9817857.50648  -7491502.88346  21865293.4984   21865297.0444   21865291.5024
       174.0004        174.0004
  19627710.99848  15970575.35446  24129959.0564   24129968.5574   24129959.5864
       167.0004        167.0004
  -4282910.20747  -3321751.10745  23897060.4224   23897065.3234   23897057.8964
       151.0004        151.0004
   9487613.23447   7751551.59145  24617225.8704   24617228.1904   24617224.0234
       158.0004        158.0004
  -3698553.33148  -2716448.25147  21870682.5324   21870686.6874   21870680.2824
       190.0004        191.0004
  -5281199.92949  -3905224.29847  21305667.7344   21305669.9744   21305665.4004
       200.0004        199.0004
 -11902923.23748  -8890823.28047  21306467.9374   21306470.3924   21306465.7504
       193.0004        194.0004
  -9248138.19648  -7042478.12146  23022848.2194   23022850.1294   23022847.3774
       178.0004        178.0004
 02  8  5  0 46  0.0020000  0  8G 3G25G31G20G 2G22G 1G13
  -9837107.27948  -7506502.59847  21861628.6654   21861633.6774   21861627.9634
       190.0004        189.0004
  19725377.61148  16046679.18446  24148545.9284   24148553.9964   24148545.3314
       168.0004        168.0004
  -4357848.59747  -3380144.57945  23882799.1954   23882806.1394   23882798.6294
       155.0004        155.0004
   9608111.23547   7845446.10945  24640156.1784   24640158.4634   24640153.6484
       156.0004        156.0004
  -3636619.26549  -2668187.85647  21882466.6274   21882472.3414   21882466.5254
       197.0004        198.0004
  -5183389.07349  -3829007.98847  21324276.5204   21324283.0664   21324276.6774
       201.0004        201.0004
 -11895694.50448  -8885190.47947  21307841.8254   21307846.2104   21307839.8784
       192.0004        192.0004
  -9290244.34848  -7075288.04946  23014835.0954   23014837.5534   23014834.2524
       178.0004        178.0004
 02  8  5  0 46 30.0020000  0  8G 3G25G31G20G 2G22G 1G13
  -9855815.99948  -7521080.69847  21858066.6354   21858073.9914   21858067.0944
       189.0004        189.0004
  19823260.50848  16122951.53246  24167171.5294   24167180.4604   24167171.6994
       166.0004        166.0004
  -4432615.52747  -3438404.44545  23868574.4334   23868576.8734   23868573.5854
       158.0004        157.0004
   9728751.41747   7939451.38645  24663113.1244   24663116.1124   24663110.2234
       157.0004        157.0004
  -3574416.50948  -2619718.25047  21894304.6114   21894308.8704   21894302.5934
       192.0004        192.0004
  -5085239.33749  -3752527.74547  21342956.7084   21342960.3784   21342954.5704
       201.0004        201.0004
 -11887896.87248  -8879114.37247  21309323.8624   21309330.3074   21309322.3054
       190.0004        190.0004
  -9331955.94048  -7107790.52646  23006896.3964   23006899.2824   23006895.3004
       177.0004        176.0004
 02  8  5  0 47  0.0020000  0  8G 3G25G31G20G 2G22G 1G13
  -9874047.18548  -7535286.78846  21854599.6884   21854604.0194   21854599.7034
       176.0004        178.0004
  19921294.46647  16199341.59546  24185829.1884   24185835.7324   24185827.8714
       163.0004        163.0004
  -4507273.78047  -3496579.60945  23854363.2394   23854370.2614   23854363.4644
       155.0004        155.0004
   9849464.81547   8033513.72045  24686080.0594   24686086.8374   24686079.3954
       153.0004        154.0004
  -3512012.40349  -2571091.57347  21906178.4204   21906183.6264   21906178.0544
       195.0004        196.0004
  -4986818.78249  -3675836.34447  21361683.4794   21361688.9934   21361683.5254
       200.0004        200.0004
 -11879594.42848  -8872644.90347  21310902.1464   21310909.8764   21310900.8744
       188.0004        189.0004
  -9373336.08548  -7140034.74346  22999019.9914   22999024.6834   22999019.5934
       175.0004        175.0004
 02  8  5  0 47 30.0020000  0  8G 3G25G31G20G 2G22G 1G13
  -9891798.07348  -7549118.61446  21851222.5084   21851226.0474   21851220.6784
       183.0004        183.0004
  20019480.19147  16275849.92546  24204515.4504   24204519.8174   24204514.4244
       163.0004        163.0004
  -4581819.41447  -3554667.06145  23840174.3864   23840183.3484   23840173.8594
       150.0004        150.0004
   9970249.42847   8127631.55845  24709063.2374   24709072.9074   24709062.8244
       153.0004        153.0004
  -3449407.00348  -2522308.22547  21918093.0224   21918097.0734   21918091.0934
       194.0004        194.0004
  -4888128.48149  -3598934.87047  21380464.5244   21380469.0984   21380462.9034
       202.0004        201.0004
 -11870784.82648  -8865780.24747  21312577.3054   21312586.5984   21312577.2484
       188.0004        188.0004
  -9414380.83548  -7172017.61046  22991210.7114   22991214.1904   22991209.5444
       175.0004        175.0004
 02  8  5  0 48  0.0020000  0  8G 3G25G31G20G 2G22G 1G13
  -9909020.97748  -7562538.96547  21847942.6314   21847949.2724   21847941.9794
       191.0004        190.0004
  20117863.80747  16352512.44246  24223237.5564   24223242.0444   24223235.4844
       164.0004        164.0004
  -4656203.95347  -3612628.97045  23826018.3724   23826029.4284   23826018.4034
       150.0004        149.0004
  10091147.52247   8221837.80645  24732065.5364   24732076.4714   24732067.4474
       151.0004        151.0004
  -3386556.25548  -2473333.50247  21930052.4774   21930057.2704   21930052.2154
       193.0004        194.0004
  -4789125.15049  -3521789.35647  21399304.1514   21399308.6714   21399303.8834
       198.0004        198.0004
 -11861420.72148  -8858483.51947  21314359.5754   21314367.9674   21314359.8574
       188.0004        188.0004
  -9455042.36248  -7203701.84746  22983472.7804   22983476.9254   22983471.9044
       176.0004        176.0004
 02  8  5  0 48 30.0020000  0  8G 3G25G31G20G 2G22G 1G13
  -9925819.98248  -7575628.99746  21844746.8034   21844751.6984   21844746.6964
       187.0004        187.0004
  20216339.41847  16429246.62446  24241977.4264   24241981.0174   24241976.5854
       163.0004        163.0004
  -4730530.59547  -3670545.78845  23811880.4854   23811887.0034   23811878.1064
       155.0004        154.0004
  10212049.63647   8316047.18745  24755072.3014   24755085.1244   24755074.5814
       152.0004        151.0004
  -3323567.67349  -2424251.57447  21942039.9274   21942043.7424   21942038.0944
       197.0004        197.0004
  -4689917.13149  -3444484.47647  21418182.5674   21418187.5784   21418180.6674
       201.0004        201.0004
 -11851606.89748  -8850836.35647  21316229.3574   21316235.8634   21316229.4454
       190.0004        191.0004
  -9495424.25048  -7235168.17546  22975789.1164   22975793.5994   22975787.3174
       177.0004        177.0004
 02  8  5  0 49  0.0020000  0  8G 3G25G31G20G 2G22G 1G13
  -9942155.25048  -7588357.75346  21841639.7794   21841643.7284   21841638.6044
       174.0004        176.0004
  20314945.02147  16506082.13445  24260742.9074   24260744.5224   24260740.6614
       159.0004        159.0004
  -4804758.82147  -3728385.87545  23797756.8614   23797759.5434   23797756.6774
       160.0004        160.0004
  10332990.53847   8410286.79245  24778090.9524   24778098.4994   24778089.2734
       153.0004        152.0004
  -3260405.25648  -2375033.99047  21954057.8634   21954063.1984   21954057.6764
       191.0004        193.0004
  -4590469.00849  -3366992.37947  21437107.9744   21437111.6094   21437107.9224
       196.0004        197.0004
 -11841304.02948  -8842808.13247  21318192.1154   21318196.6364   21318191.7564
       194.0004        194.0004
  -9535486.05748  -7266385.09846  22968162.8114   22968170.2604   22968162.2374
       177.0004        177.0004
 02  8  5  0 49 30.0020000  0  8G 3G25G31G20G 2G22G 1G13
  -9957940.58948  -7600658.01547  21838634.1704   21838639.6364   21838633.3984
       188.0004        188.0004
  20413764.90147  16583084.59745  24279549.2594   24279549.6694   24279546.6984
       159.0004        159.0004
  -4878801.60347  -3786081.43045  23783665.1834   23783671.3424   23783665.5404
       160.0004        160.0004
  10454051.14547   8504619.68345  24801130.1874   24801135.9434   24801126.6404
       153.0004        152.0004
  -3196986.15649  -2325616.59247  21966126.8584   21966131.1904   21966125.3784
       199.0004        199.0004
  -4490698.83949  -3289249.44447  21456091.8124   21456097.2304   21456090.1844
       200.0004        200.0004
 -11830426.61449  -8834332.21847  21320262.9004   21320266.5964   21320262.8004
       197.0004        197.0004
  -9575141.58348  -7297285.45546  22960615.2874   22960623.5564   22960614.8584
       175.0004        175.0004
 02  8  5  0 50  0.0020000  0  8G 3G25G31G20G 2G22G 1G13
  -9973231.44048  -7612572.83347  21835723.4884   21835729.6244   21835723.7914
       191.0004        191.0004
  20512742.16747  16660209.68745  24298383.5924   24298383.9394   24298381.2864
       160.0004        159.0004
  -4952713.01547  -3843674.64445  23769601.9684   23769603.9964   23769600.3844
       156.0004        157.0004
  10575171.27647   8598998.96445  24824180.3364   24824183.9994   24824177.7734
       153.0004        153.0004
  -3133368.95548  -2276044.64747  21978232.4434   21978237.3964   21978231.9464
       187.0004        190.0004
  -4390665.97248  -3211301.69747  21475129.7304   21475133.0524   21475129.4254
       194.0004        195.0004
 -11819030.40949  -8825452.05247  21322432.3394   21322434.6714   21322431.8874
       199.0004        199.0004
  -9614445.26048  -7327911.63046  22953135.0914   22953143.4234   22953135.1654
       174.0004        174.0004
 02  8  5  0 50 30.0020000  0  8G 3G25G31G20G 2G22G 1G13
  -9988020.29348  -7624096.53246  21832908.5504   21832915.6234   21832909.1514
       177.0004        179.0004
  20611882.11647  16737461.54245  24317247.8104   24317250.4574   24317246.5964
       161.0004        160.0004
  -5026484.83347  -3901159.12845  23755556.9974   23755567.8024   23755556.8244
       152.0004        152.0004
  10696353.37847   8693426.54345  24847241.5844   24847244.6204   24847238.6594
       155.0004        154.0004
  -3069549.61049  -2226315.35947  21990377.4144   21990381.6574   21990375.9964
       200.0004        200.0004
  -4290366.99849  -3133146.69847  21494213.1974   21494218.9784   21494211.6424
       201.0004        201.0004
 -11807108.46049  -8816162.21447  21324701.1584   21324703.4704   21324700.8114
       200.0004        199.0004
  -9653388.37048  -7358256.85046  22945724.8964   22945731.4424   22945724.5864
       172.0004        173.0004
 02  8  5  0 51  0.0020000  0  8G 3G25G31G20G 2G22G 1G13
 -10002240.48648  -7635177.25746  21830206.7204   21830209.2454   21830205.1534
       182.0004        181.0004
  20711249.64647  16814890.75245  24336155.7704   24336159.8494   24336154.7744
       160.0004        160.0004
  -5100049.46447  -3958482.19745  23741561.3414   23741569.0784   23741559.2154
       154.0004        154.0004
  10817658.32847   8787949.84645  24870325.4124   24870328.6434   24870323.1464
       155.0004        155.0004
  -3005464.92148  -2176379.16347  22002571.8194   22002576.8174   22002571.1754
       185.0004        189.0004
  -4189739.89148  -3054735.91447  21513365.3374   21513368.2114   21513364.7724
       194.0004        195.0004
 -11794594.83449  -8806411.33147  21327082.2364   21327084.7484   21327081.7424
       200.0004        200.0004
  -9691904.45148  -7388269.30346  22938395.5724   22938402.2914   22938395.7334
       174.0004        173.0004
 02  8  5  0 51 30.0020000  0  8G 3G25G31G20G 2G22G 1G13
 -10015978.08048  -7645881.78347  21827589.1744   21827595.1694   21827588.5594
       189.0004        189.0004
  20810757.43247  16892429.25245  24355088.8714   24355094.4954   24355088.8604
       156.0004        156.0004
  -5173491.62947  -4015709.74745  23727587.1144   23727593.3374   23727585.2524
       159.0004        158.0004
  10938995.77747   8882498.47745  24893415.1784   24893418.1414   24893412.5814
       153.0004        152.0004
  -2941204.08349  -2126305.81847  22014799.7734   22014805.2024   22014798.7344
       200.0004        200.0004
  -4088874.42049  -2976139.47947  21532555.9364   21532561.8544   21532554.2554
       202.0004        201.0004
 -11781575.71749  -8796266.55647  21329560.0564   21329562.1834   21329559.2424
       199.0004        199.0004
  -9730078.60748  -7418015.33046  22931131.1774   22931138.6074   22931131.9154
       174.0004        174.0004
 02  8  5  0 52  0.0020000  0  8G 3G25G31G20G 2G22G 1G13
 -10029192.91948  -7656178.96247  21825074.2384   21825080.0314   21825074.4134
       188.0004        188.0004
  20910443.88047  16970106.94345  24374055.5594   24374064.9024   24374058.1564
       157.0004        157.0004
  -5246770.37347  -4072809.96646  23713647.3444   23713647.9604   23713645.2934
       163.0004        163.0004
  11060400.58147   8977099.58445  24916516.2274   24916520.2774   24916514.8224
       153.0004        152.0004
  -2876730.34648  -2076066.52047  22027069.0964   22027074.3514   22027067.9604
       184.0004        188.0004
  -3987734.42948  -2897329.05447  21551806.6334   21551808.5504   21551805.4934
       193.0004        195.0004
 -11768011.61249  -8785697.10647  21332140.5024   21332142.8764   21332139.6894
       198.0004        197.0004
  -9767870.30348  -7447463.34346  22923941.8454   22923948.2074   22923941.6274
       178.0004        178.0004
 02  8  5  0 52 30.0020000  0  8G 3G25G31G20G 2G22G 1G13
 -10041931.24748  -7666104.88946  21822652.8564   21822656.4044   21822652.1774
       178.0004        179.0004
  21010260.56947  17047886.12745  24393050.6084   24393060.2074   24393051.5554
       160.0004        160.0004
  -5319931.01347  -4129818.11245  23699722.8344   23699724.3204   23699722.0824
       160.0004        160.0004
  11181821.31347   9071713.09845  24939619.4544   24939626.1294   24939617.9044
       149.0004        150.0004
  -2812093.49849  -2025700.14047  22039368.7354   22039373.9974   22039367.7614
       200.0004        201.0004
  -3886370.56549  -2818344.25447  21571090.4674   21571097.2744   21571089.2944
       202.0004        202.0004
 -11753949.34549  -8774739.47247  21334816.1494   21334819.0004   21334814.3304
       195.0004        195.0004
  -9805325.32848  -7476649.03446  22916814.2324   22916821.0474   22916814.2434
       179.0004        178.0004
 02  8  5  0 53  0.0020000  0  8G 3G25G31G20G 2G22G 1G13
 -10054136.17148  -7675615.25146  21820327.6404   21820334.0894   21820327.0194
       185.0004        184.0004
  21110262.61447  17125809.76145  24412078.2374   24412089.8724   24412080.0974
       162.0004        162.0004
  -5392915.70247  -4186689.20245  23685831.3894   23685837.7244   23685830.8624
       160.0004        160.0004
  11303309.64047   9166379.27545  24962734.0124   24962744.0564   24962735.0164
       146.0004        146.0004
  -2747239.77248  -1975164.77847  22051711.2254   22051715.4934   22051709.4244
       187.0004        189.0004
  -3784730.07948  -2739143.85247  21590437.7994   21590438.7594   21590436.4194
       193.0004        195.0004
 -11739332.64448  -8763349.80747  21337595.4734   21337600.3434   21337593.9434
       191.0004        192.0004
  -9842386.06348  -7505527.49446  22909761.3374   22909767.7474   22909762.5264
       181.0004        181.0004
 02  8  5  0 53 30.0020000  0  8G 3G25G31G20G 2G22G 1G13
 -10065842.50148  -7684736.96847  21818100.1754   21818106.0234   21818099.9634
       193.0004        192.0004
  21210413.90947  17203849.68645  24431136.1594   24431147.2044   24431137.0244
       160.0004        160.0004
  -5465757.89847  -4243449.23345  23671965.1124   23671976.9234   23671964.7224
       155.0004        155.0004
  11424826.27647   9261067.50045  24985855.4704   24985868.5814   24985858.2124
       144.0004        144.0004
  -2682207.40249  -1924490.16147  22064084.6944   22064090.4124   22064084.0214
       199.0004        199.0004
  -3682851.70949  -2659758.12847  21609818.6534   21609825.3234   21609817.7904
       202.0004        202.0004
 -11724196.64548  -8751555.47847  21340473.1484   21340480.4204   21340471.9824
       187.0004        188.0004
  -9879086.36048  -7534125.09146  22902780.5034   22902784.1024   22902780.9084
       183.0004        183.0004
 02  8  5  0 54  0.0020000  0  8G 3G25G31G20G 2G22G 1G13
 -10077050.66748  -7693470.47746  21815967.4214   21815973.0124   21815967.6424
       186.0004        187.0004
  21310712.62247  17282004.47145  24450221.9564   24450233.1354   24450222.9444
       161.0004        161.0004
  -5538456.87847  -4300097.74445  23658131.7794   23658141.6724   23658131.5514
       154.0004        154.0004
  11546365.92547   9355773.64545  25008988.8364   25008997.7304   25008988.3864
       149.0004        148.0004
  -2616999.44448  -1873678.82747  22076495.2624   22076499.1584   22076493.1804
       190.0004        191.0004
  -3580739.46748  -2580190.13947  21629255.8534   21629256.9344   21629254.4394
       193.0004        195.0004
 -11708542.25448  -8739357.20146  21343449.9984   21343459.5784   21343450.2564
       186.0004        187.0004
  -9915425.77748  -7562441.47746  22895867.7504   22895867.5524   22895867.3204
       185.0004        185.0004
 02  8  5  0 54 30.0020000  0  8G 3G25G31G20G 2G22G 1G13
 -10087668.49148  -7701744.13146  21813949.2914   21813952.5724   21813947.8004
       176.0004        177.0004
  21411248.84647  17360344.31945  24469355.2084   24469365.6964   24469355.1874
       162.0004        162.0004
  -5610919.46247  -4356562.00045  23644348.4404   23644351.6834   23644346.3454
       159.0004        158.0004
  11668015.73447   9450565.64745  25032142.3054   25032145.9114   25032139.9854
       151.0004        150.0004
  -2551527.48549  -1822661.63847  22088952.2624   22088958.1354   22088951.7764
       197.0004        198.0004
  -3478305.53349  -2500371.50247  21648742.4754   21648749.4184   21648741.4344
       202.0004        202.0004
 -11692277.95648  -8726683.67446  21346546.1724   21346554.6964   21346546.2964
       187.0004        187.0004
  -9951311.81248  -7590404.57846  22889039.1384   22889038.6674   22889038.4124
       187.0004        186.0004
 02  8  5  0 55  0.0020000  0  9G 3G25G31G20G 2G27G22G 1G13
 -10097776.99248  -7709620.83947  21812023.7684   21812028.5534   21812023.4524
       190.0004        190.0004
  21511940.12047  17438804.99646  24488516.1544   24488526.5664   24488517.2044
       164.0004        164.0004
  -5683225.40747  -4412904.17546  23630590.2854   23630590.6694   23630589.3024
       163.0004        163.0004
  11789689.78947   9545376.57145  25055297.5784   25055299.8654   25055293.4694
       151.0004        151.0004
  -2485875.39648  -1771504.24647  22101447.1434   22101451.5044   22101445.0814
       194.0004        194.0004
   -214314.83056    -67297.26344  25951015.5654   25951026.7224   25951014.7404
       124.0004        127.0004
  -3375634.71748  -2420368.25847  21668286.4494   21668287.3244   21668284.6274
       193.0004        195.0004
 -11675485.21048  -8713598.38347  21349743.6214   21349750.5174   21349744.1554
       190.0004        190.0004
  -9986824.82148  -7618077.01446  22882279.5414   22882281.6274   22882279.2364
       186.0004        186.0004
 02  8  5  0 55 30.0030000  0  9G 3G25G31G20G 2G27G22G 1G13
 -10107394.18248  -7717114.65147  21810191.9834   21810199.0144   21810192.1124
       190.0004        190.0004
  21612770.74647  17517374.26846  24507705.9384   24507714.4954   24507704.8174
       164.0004        163.0004
  -5755393.46947  -4469138.87846  23616854.9054   23616858.9784   23616855.1814
       164.0004        163.0004
  11911369.81347   9640192.13845  25078451.2424   25078454.6884   25078449.1784
       153.0004        152.0004
  -2420062.00149  -1720220.98247  22113969.2744   22113974.8794   22113969.2724
       195.0004        196.0004
   -253906.57546    -98147.94144  25943484.0434   25943492.1504   25943485.2314
       127.0004        127.0004
  -3272745.15549  -2340194.58047  21687859.6554   21687866.3044   21687858.3924
       202.0004        202.0004
 -11658181.44948  -8700114.90847  21353038.1974   21353042.8774   21353038.2874
       192.0004        192.0004
 -10021982.32148  -7645472.44446  22875588.8254   22875591.8004   22875587.9884
       184.0004        184.0004
 02  8  5  0 56  0.0030000  0  9G 3G25G31G20G 2G27G22G 1G13
 -10116441.76748  -7724164.68846  21808471.5774   21808477.4524   21808472.0454
       181.0004        182.0004
  21713809.42347  17596105.66345  24526933.5134   24526940.7124   24526932.9794
       160.0004        160.0004
  -5827340.29647  -4525201.21946  23603161.5394   23603169.1754   23603161.3874
       162.0004        163.0004
  12033120.09047   9735062.47845  25101622.5014   25101623.7724   25101618.4834
       154.0004        154.0004
  -2354017.23549  -1668757.61547  22126538.4794   22126542.7934   22126536.7124
       196.0004        196.0004
   -293536.39746   -129028.16744  25935948.6124   25935950.1594   25935946.3004
       127.0004        130.0004
  -3169570.06648  -2259798.40147  21707499.1324   21707500.0514   21707497.4884
       194.0004        195.0004
 -11640291.07349  -8686174.33347  21356443.9284   21356447.2704   21356443.8494
       196.0004        195.0004
 -10056704.35248  -7672528.52646  22868980.4664   22868985.0454   22868979.6004
       184.0004        183.0004
 02  8  5  0 56 30.0030000  0  9G 3G25G31G20G 2G27G22G 1G13
 -10124945.82548  -7730791.25446  21806855.8094   21806859.0014   21806854.0224
       183.0004        182.0004
  21815032.49147  17674980.73645  24546197.9284   24546203.2474   24546197.4974
       156.0004        156.0004
  -5899092.73547  -4581112.14545  23589503.2104   23589514.6094   23589504.1764
       159.0004        159.0004
  12154914.60747   9829967.24645  25124795.0784   25124800.4434   25124793.0794
       150.0004        150.0004
  -2287767.74848  -1617134.54347  22139143.8024   22139149.9224   22139143.8944
       193.0004        194.0004
   -333232.91046   -159960.36544  25928386.2974   25928393.7354   25928386.0754
       129.0004        129.0004
  -3066135.77049  -2179200.24947  21727175.6904   21727182.4194   21727175.1274
       202.0004        202.0004
 -11621839.77449  -8671796.69147  21359956.5984   21359958.7494   21359955.9884
       198.0004        197.0004
 -10091016.70548  -7699265.37046  22862450.3954   22862455.0434   22862449.3214
       182.0004        182.0004
 02  8  5  0 57  0.0030000  0  9G 3G25G31G20G 2G27G22G 1G13
 -10132886.06148  -7736978.41147  21805341.7684   21805347.6974   21805341.4444
       191.0004        190.0004
  21916459.17547  17754014.46445  24565501.1954   24565503.0934   24565498.8454
       154.0004        154.0004
  -5970628.90947  -4636854.54445  23575895.2934   23575901.6694   23575893.5894
       160.0004        160.0004
  12276768.75047   9924918.48945  25147978.6724   25147987.4824   25147978.7754
       149.0004        149.0004
  -2221295.83649  -1565338.33047  22151795.0584   22151799.1354   22151792.8164
       199.0004        199.0004
   -372977.10046   -190929.79644  25920825.1644   25920831.6034   25920823.2824
       131.0004        131.0004
  -2962425.29848  -2098386.89147  21746917.5434   21746918.4534   21746915.8294
       194.0004        195.0004
 -11602807.47449  -8656966.32447  21363578.0354   21363580.5154   21363577.5904
       198.0004        198.0004
 -10124898.18148  -7725666.45846  22856002.7214   22856006.9534   22856001.0374
       181.0004        181.0004
 02  8  5  0 57 30.0030000  0  9G 3G25G31G20G 2G27G22G 1G13
 -10140259.54848  -7742723.89147  21803938.8224   21803944.4714   21803938.8534
       189.0004        189.0004
  22018090.41347  17833207.59445  24584842.0984   24584843.7924   24584839.7604
       156.0004        156.0004
  -6041944.95847  -4692425.35546  23562325.6554   23562329.8454   23562325.0334
       163.0004        163.0004
  12398680.47347  10019914.57145  25171175.6034   25171186.7554   25171177.5744
       143.0004        142.0004
  -2154602.13348  -1513369.12847  22164485.1174   22164490.3364   22164485.0354
       191.0004        193.0004
   -412767.51047   -221935.23045  25913257.3944   25913261.1164   25913257.0174
       137.0004        136.0004
  -2858440.01149  -2017359.38147  21766698.9734   21766705.8824   21766698.0914
       202.0004        202.0004
 -11583191.83949  -8641681.41147  21367310.8894   21367313.1154   21367310.0074
       196.0004        196.0004
 -10158345.14848  -7751728.95146  22849635.1854   22849641.2734   22849635.1374
       180.0004        180.0004
 02  8  5  0 58  0.0030000  0  9G 3G25G31G20G 2G27G22G 1G13
 -10147090.90048  -7748047.00346  21802641.0344   21802644.7204   21802640.2214
       177.0004        178.0004
  22119899.65647  17912539.44645  24604216.2824   24604217.3464   24604213.9134
       155.0004        155.0004
  -6113064.52448  -4747843.06846  23548793.8424   23548796.8424   23548792.6284
       166.0004        166.0004
  12520620.36147  10114932.62245  25194383.7674   25194389.2574   25194383.5874
       143.0004        142.0004
  -2087714.69849  -1461249.12147  22177213.6264   22177218.1914   22177212.1304
       199.0004        199.0004
   -452630.92947   -252997.54245  25905670.3494   25905674.7664   25905669.0374
       138.0004        138.0004
  -2754208.40048  -1936139.93047  21786540.1164   21786540.8034   21786538.5244
       194.0004        196.0004
 -11563018.34248  -8625961.79547  21371149.9714   21371151.6794   21371148.0654
       194.0004        194.0004
 -10191381.81648  -7777471.74146  22843347.0884   22843354.6614   22843347.2254
       179.0004        179.0004
 02  8  5  0 58 30.0030000  0  9G 3G25G31G20G 2G27G22G 1G13
 -10153431.31448  -7752987.62346  21801433.5614   21801437.7474   21801432.4954
       186.0004        186.0004
  22221834.26947  17991968.97445  24623608.7484   24623614.5784   24623608.9454
       153.0004        153.0004
  -6184037.27348  -4803146.38846  23535285.2924   23535291.0004   23535285.5874
       165.0004        165.0004
  12642532.60847  10209929.15145  25217587.2134   25217591.1314   25217584.4064
       146.0004        146.0004
  -2020687.37448  -1409019.97247  22189969.4214   22189973.5294   22189968.6864
       188.0004        191.0004
   -492619.51447   -284157.39845  25898050.5854   25898065.1904   25898054.3654
       137.0004        137.0004
  -2649785.39449  -1854771.34247  21806404.3154   21806411.4314   21806403.6994
       202.0004        201.0004
 -11542338.52448  -8609847.63547  21375082.6914   21375087.2144   21375080.7044
       190.0004        190.0004
 -10224058.47448  -7802933.99946  22837127.9944   22837135.6354   22837128.8954
       178.0004        178.0004
 02  8  5  0 59  0.0030000  0  9G 3G25G31G20G 2G27G22G 1G13
 -10159270.81848  -7757537.78047  21800320.1064   21800326.1764   21800320.1134
       191.0004        191.0004
  22323903.40447  18071503.27645  24643029.5564   24643037.3874   24643030.9494
       156.0004        156.0004
  -6254851.49047  -4858326.20646  23521807.6694   23521814.5414   23521807.9144
       163.0004        163.0004
  12764422.80847  10304908.44545  25240785.3484   25240785.1484   25240779.9964
       145.0004        145.0004
  -1953512.84149  -1356676.23447  22202750.8364   22202756.6974   22202749.9594
       201.0004        201.0004
   -532724.55647   -315407.99645  25890432.7824   25890433.3214   25890428.1394
       140.0004        140.0004
  -2545164.29348  -1773248.40747  21826319.6424   21826320.2914   21826317.9894
       192.0004        194.0004
 -11521142.55148  -8593331.26246  21379113.4304   21379120.6804   21379111.5304
       186.0004        186.0004
 -10256363.76848  -7828106.88046  22830980.9014   22830988.6664   22830981.9884
       178.0004        178.0004
 02  8  5  0 59 30.0030000  0  9G 3G25G31G20G 2G27G22G 1G13
 -10164558.48748  -7761657.96546  21799314.3184   21799320.2764   21799314.2784
       183.0004        184.0004
  22426155.99247  18151180.56045  24662485.1034   24662495.8264   24662486.9424
       159.0004        159.0004
  -6325454.93647  -4913341.82245  23508368.6354   23508379.1874   23508368.9794
       160.0004        160.0004
  12886337.19247  10399906.61745  25263981.2874   25263984.3824   25263980.3844
       147.0004        146.0004
  -1886143.16348  -1304180.34047  22215572.1394   22215577.0164   22215571.4594
       188.0004        192.0004
   -572896.48847   -346710.67745  25882784.2004   25882787.6794   25882783.9894
       139.0004        139.0004
  -2440298.21349  -1691534.57947  21846268.0194   21846275.5504   21846267.2464
       200.0004        200.0004
 -11499380.16048  -8576373.52846  21383251.8294   21383261.5194   21383251.3794
       183.0004        184.0004
 -10288245.91448  -7852950.04846  22824915.8864   22824922.5144   22824916.7494
       182.0004        182.0004
 02  8  5  1  0  0.0030000  0  9G 3G25G31G20G 2G27G22G 1G13
 -10169289.69848  -7765344.69746  21798418.5704   21798419.9044   21798416.6974
       178.0004        178.0004
  22528595.02647  18231003.11045  24681979.4474   24681989.5564   24681979.5754
       160.0004        160.0004
  -6395842.03247  -4968188.82145  23494980.4924   23494984.7754   23494978.3634
       163.0004        162.0004
  13008275.63447  10494923.54545  25287187.0214   25287189.1064   25287184.5484
       148.0004        147.0004
  -1818577.15949  -1251531.53747  22228428.4184   22228433.9104   22228427.3384
       201.0004        202.0004
   -613132.31347   -378063.21145  25875119.7294   25875133.8704   25875120.9244
       139.0004        138.0004
  -2335186.08848  -1609629.01547  21866277.1624   21866277.5324   21866275.5194
       190.0004        192.0004
 -11477047.45648  -8558971.38046  21387501.5994   21387511.3104   21387502.1094
       184.0004        184.0004
 -10319700.13848  -7877459.78246  22818933.6174   22818937.5144   22818933.7464
       186.0004        186.0004
 02  8  5  1  0 30.0030000  0  9G 3G25G31G20G 2G27G22G 1G13
 -10173443.28248  -7768581.21347  21797623.6094   21797629.8944   21797622.9614
       189.0004        189.0004
  22631240.87847  18310986.82945  24701511.1514   24701523.1024   24701511.6444
       159.0004        159.0004
  -6465989.75148  -5022849.22446  23481632.9304   23481637.2364   23481632.0744
       168.0004        168.0004
  13130255.13947  10589972.44745  25310393.7684   25310400.7954   25310394.4764
       148.0004        148.0004
  -1750795.88348  -1198714.95747  22241329.2344   22241332.4324   22241327.1524
       187.0004        190.0004
   -653411.92647   -409449.86045  25867463.2734   25867468.0814   25867461.6964
       142.0004        142.0004
  -2229810.41949  -1527518.09047  21886322.7444   21886329.6174   21886321.9024
       198.0004        198.0004
 -11454123.33448  -8541108.40646  21391866.4454   21391874.0724   21391866.8074
       187.0004        187.0004
 -10350703.70048  -7901618.36847  22813034.1134   22813038.1274   22813034.3934
       189.0004        188.0004
 02  8  5  1  1  0.0030000  0  9G 3G25G31G20G 2G27G22G 1G13
 -10177094.80448  -7771426.46547  21796927.7204   21796934.4024   21796927.7574
       189.0004        189.0004
  22734016.31047  18391071.51245  24721070.7864   24721079.1694   24721070.4464
       158.0004        158.0004
  -6535972.84948  -5077381.36546  23468315.7554   23468319.3074   23468315.6874
       171.0004        170.0004
  13252195.10847  10684990.53445  25333593.9204   25333606.7984   25333597.5094
       144.0004        144.0004
  -1682878.51949  -1145792.33347  22254250.1744   22254256.3094   22254249.8854
       200.0004        201.0004
   -693812.59247   -440930.82645  25859773.8434   25859779.6194   25859773.3944
       147.0004        146.0004
  -2124250.58748  -1445263.65147  21906416.8174   21906417.6744   21906415.1344
       190.0004        191.0004
 -11430684.50848  -8522844.37847  21396329.8014   21396334.3564   21396329.6934
       191.0004        191.0004
 -10381331.73148  -7925484.33747  22807205.9494   22807208.8354   22807206.3244
       189.0004        189.0004
 02  8  5  1  1 30.0030000  0  9G 3G25G31G20G 2G27G22G 1G13
 -10180125.63348  -7773788.12446  21796353.6644   21796358.2594   21796353.7054
       180.0004        181.0004
  22837038.40447  18471348.38445  24740677.2184   24740684.1604   24740676.7314
       157.0004        157.0004
  -6605670.96248  -5131691.45446  23455049.5784   23455055.4584   23455049.7814
       165.0004        165.0004
  13374209.62347  10780066.73745  25356818.6924   25356825.0294   25356815.5374
       149.0004        147.0004
  -1614708.82148  -1092673.11547  22267226.0694   22267229.0324   22267223.9024
       190.0004        192.0004
   -734216.71947   -472414.53245  25852081.4794   25852091.5894   25852080.6094
       145.0004        145.0004
  -2018391.62449  -1362776.15447  21926554.1194   21926561.5204   21926553.1284
       198.0004        198.0004
 -11406612.55048  -8504087.01847  21400912.5824   21400914.7844   21400912.0304
       194.0004        194.0004
 -10411464.82448  -7948964.64047  22801472.7394   22801473.9974   22801472.3204
       189.0004        189.0004
 02  8  5  1  2  0.0030000  0  9G 3G25G31G20G 2G27G22G 1G13
 -10182651.28448  -7775756.21946  21795874.7094   21795877.5354   21795872.3834
       182.0004        182.0004
  22940190.17047  18551726.31345  24760308.4704   24760313.9634   24760307.9094
       156.0004        156.0004
  -6675198.03847  -5185868.29145  23441815.0414   23441823.9254   23441815.2494
       160.0004        160.0004
  13496178.82847  10875107.61345  25380032.4814   25380034.9324   25380027.7124
       148.0004        148.0004
  -1546405.37149  -1039449.60747  22280220.7304   22280226.4434   22280220.3184
       201.0004        202.0004
   -774741.02447   -503991.87245  25844372.6114   25844378.0754   25844371.6014
       148.0004        147.0004
  -1912352.37848  -1280148.14847  21946740.3594   21946740.2434   21946738.5424
       188.0004        190.0004
 -11382023.47649  -8484926.71447  21405591.6664   21405593.8654   21405591.1924
       196.0004        196.0004
 -10441217.14548  -7972148.23047  22795810.4334   22795812.1244   22795810.0804
       188.0004        188.0004
 02  8  5  1  2 30.0030000  0  9G 3G25G31G20G 2G27G22G 1G13
 -10184638.70148  -7777304.78647  21795492.6624   21795499.3864   21795492.4254
       192.0004        192.0004
  23043503.51247  18632230.16045  24779972.2584   24779974.9644   24779969.8274
       153.0004        153.0004
  -6744519.66847  -5239885.06645  23428624.3984   23428634.0754   23428623.9034
       161.0004        161.0004
  13618131.08847  10970135.25245  25403235.2294   25403241.5324   25403235.2504
       147.0004        147.0004
  -1477937.55648   -986098.11347  22293252.0974   22293255.8574   22293250.0624
       194.0004        194.0004
   -815353.90147   -535638.19245  25836647.4504   25836650.7514   25836645.5604
       151.0004        151.0004
  -1806103.48449  -1197356.81347  21966951.2464   21966958.4054   21966950.2224
       197.0004        197.0004
 -11356884.77749  -8465338.12947  21410375.3744   21410377.6324   21410374.6704
       196.0004        196.0004
 -10470555.10348  -7995008.95246  22790227.9014   22790229.3464   22790226.9664
       187.0004        187.0004
 02  8  5  1  3  0.0030000  0  9G 3G25G31G20G 2G27G22G 1G13
 -10186090.65248  -7778436.06647  21795216.2724   21795222.8164   21795217.1184
       190.0004        190.0004
  23146973.80747  18712856.31545  24799662.9104   24799663.7374   24799660.6454
       154.0004        154.0004
  -6813637.11048  -5293742.71646  23415478.8594   23415481.4154   23415476.6164
       168.0004        167.0004
  13740059.65747  11065144.50145  25426437.0614   25426443.7444   25426437.3624
       145.0004        145.0004
  -1409311.49349   -932623.19347  22306308.9584   22306314.7604   22306308.6024
       201.0004        201.0004
   -856059.21447   -567356.57645  25828894.3974   25828904.7994   25828894.7264
       148.0004        149.0004
  -1699651.16448  -1114406.92547  21987215.2814   21987215.7884   21987213.8914
       187.0004        189.0004
 -11331199.74349  -8445323.82647  21415263.1204   21415265.5334   21415261.5844
       195.0004        195.0004
 -10499480.27748  -8017548.01546  22784721.9984   22784725.7384   22784720.8154
       185.0004        185.0004
 02  8  5  1  3 30.0030000  0  9G 3G25G31G20G 2G27G22G 1G13
 -10186970.49648  -7779121.66746  21795052.9964   21795055.7114   21795052.1074
       174.0004        177.0004
  23250636.98847  18793632.73445  24819386.1434   24819389.9044   24819385.3344
       154.0004        153.0004
  -6882512.11548  -5347411.44146  23402370.7684   23402374.0724   23402370.7434
       171.0004        171.0004
  13861996.59147  11160160.27545  25449644.4994   25449648.0884   25449641.7854
       148.0004        148.0004
  -1340492.77549   -878998.28947  22319406.6294   22319410.7414   22319404.8284
       197.0004        196.0004
   -896821.25147   -599119.18645  25821141.7984   25821147.7034   25821140.5024
       151.0004        151.0004
  -1592962.35149  -1031272.79547  22007510.7714   22007518.1034   22007509.6394
       197.0004        197.0004
 -11304932.14448  -8424855.56147  21420259.9664   21420264.2314   21420257.9414
       191.0004        192.0004
 -10527955.18148  -8039736.21546  22779300.6314   22779308.1924   22779300.2574
       184.0004        184.0004
 02  8  5  1  4  0.0030000  0  9G 3G25G31G20G 2G27G22G 1G13
 -10187292.65848  -7779372.76447  21794988.6674   21794993.9184   21794987.7134
       189.0004        189.0004
  23354477.10147  18874547.00545  24839141.1474   24839149.9474   24839143.3444
       154.0004        154.0004
  -6951157.48248  -5400901.16946  23389308.0114   23389310.9344   23389308.0794
       172.0004        172.0004
  13983923.05647  11255167.86745  25472845.1394   25472849.2954   25472841.6184
       147.0004        147.0004
  -1271498.85949   -825236.71747  22332533.7614   22332539.4544   22332533.6234
       199.0004        199.0004
   -937655.52847   -630938.05645  25813374.8154   25813378.4724   25813372.3584
       152.0004        152.0004
  -1486054.72048   -947968.11747  22027861.7424   22027861.7814   22027860.1984
       188.0004        189.0004
 -11278096.96848  -8403945.01447  21425363.2414   21425370.8214   21425361.8174
       188.0004        189.0004
 -10555993.03248  -8061583.85646  22773962.5194   22773972.7474   22773963.3654
       183.0004        183.0004
 02  8  5  1  4 30.0030000  0  9G 3G25G31G20G 2G27G22G 1G13
 -10187098.06648  -7779221.02347  21795024.3714   21795030.9564   21795024.4594
       193.0004        193.0004
  23458451.86347  18955566.21345  24858924.1714   24858936.3854   24858926.9714
       157.0004        157.0004
  -7019612.53947  -5454242.63646  23376278.0704   23376283.7384   23376277.8924
       164.0004        165.0004
  14105793.70247  11350131.95945  25496031.5374   25496042.1174   25496031.4494
       144.0004        145.0004
  -1202372.96549   -771372.46447  22345689.5774   22345693.6444   22345687.6284
       198.0004        198.0004
   -978604.07647   -662845.98645  25805575.1494   25805584.3564   25805575.1224
       148.0004        148.0004
  -1378972.60149   -864527.53847  22048232.1554   22048238.7434   22048230.7324
       196.0004        196.0004
 -11250735.50148  -8382624.35146  21430566.8814   21430577.3354   21430566.3304
       185.0004        186.0004
 -10583633.97748  -8083122.21046  22768703.4564   22768711.7614   22768703.7874
       182.0004        182.0004
 02  8  5  1  5  0.0030000  0  9G 3G25G31G20G 2G27G22G 1G13
 -10186338.83148  -7778629.33946  21795169.9834   21795175.7994   21795170.0654
       183.0004        185.0004
  23562607.78947  19036726.59645  24878744.5924   24878756.7284   24878743.3814
       156.0004        156.0004
  -7087827.77647  -5507397.28545  23363291.6094   23363303.8674   23363291.7124
       160.0004        161.0004
  14227652.37947  11445086.68245  25519214.9724   25519230.4504   25519220.4384
       145.0004        144.0004
  -1133070.18249   -717370.20647  22358876.1974   22358881.7064   22358875.8024
       196.0004        197.0004
  -1019620.17147   -694806.59845  25797773.3894   25797779.0394   25797772.1204
       150.0004        150.0004
  -1271671.52448   -780916.26447  22068657.1354   22068657.8864   22068655.9334
       188.0004        190.0004
 -11222800.44648  -8360856.73146  21435883.6214   21435893.2184   21435883.9734
       187.0004        187.0004
 -10610828.82348  -8104312.97446  22763529.4254   22763535.5304   22763530.3984
       182.0004        182.0004
 02  8  5  1  5 30.0030000  0  9G 3G25G31G20G 2G27G22G 1G13
 -10185015.41048  -7777598.20546  21795426.2794   21795427.6634   21795423.4304
       180.0004        180.0004
  23666943.34647  19118026.93945  24898600.4624   24898609.8454   24898600.0754
       156.0004        156.0004
  -7155802.22148  -5560364.32246  23350364.3484   23350368.6774   23350362.1704
       166.0004        165.0004
  14349494.13547  11540028.23945  25542414.1284   25542416.3584   25542409.1684
       144.0004        143.0004
  -1063593.57149   -663232.66547  22372098.2614   22372102.6744   22372096.1714
       200.0004        200.0004
  -1060705.24147   -726820.87345  25789959.4384   25789960.9644   25789957.6274
       151.0004        151.0004
  -1164155.52149   -697137.61547  22089109.7174   22089117.1044   22089108.5724
       196.0004        196.0004
 -11194292.77548  -8338642.92847  21441312.6614   21441317.8514   21441312.4504
       190.0004        191.0004
 -10637577.56448  -8125156.12746  22758443.0774   22758445.1794   22758443.1634
       185.0004        185.0004
 02  8  5  1  6  0.0030000  0  9G 3G25G31G20G 2G27G22G 1G13
 -10183146.40348  -7776141.77347  21795777.2414   21795782.8284   21795776.1634
       193.0004        193.0004
  23771438.64747  19199451.75745  24918486.4084   24918495.2884   24918486.3644
       154.0004        155.0004
  -7223552.67948  -5613156.72946  23337473.4374   23337475.1814   23337472.5094
       172.0004        171.0004
  14471296.19247  11634938.84445  25565593.6484   25565593.6614   25565588.8294
       142.0004        141.0004
   -993964.36648   -608976.05647  22385347.3964   22385352.8764   22385346.9344
       193.0004        195.0004
  -1101878.54747   -758903.91545  25782116.3564   25782127.5544   25782115.3994
       147.0004        148.0004
  -1056446.27548   -613208.29447  22109611.8444   22109613.8024   22109611.3484
       187.0004        189.0004
 -11165231.38549  -8315997.67547  21446845.0684   21446848.5784   21446844.7914
       196.0004        196.0004
 -10663896.98548  -8145664.74247  22753436.0514   22753437.3134   22753435.8604
       189.0004        189.0004
 02  8  5  1  6 30.0030000  0  9G 3G25G31G20G 2G27G22G 1G13
 -10180710.57248  -7774243.61547  21796240.3614   21796246.4834   21796240.4274
       191.0004        191.0004
  23876113.48447  19281016.49345  24938408.9814   24938415.3174   24938408.6794
       154.0004        154.0004
  -7291056.25848  -5665756.75746  23324625.6384   23324629.4584   23324626.1354
       172.0004        172.0004
  14593075.70047  11729831.87545  25588764.1594   25588768.0144   25588761.6644
       143.0004        143.0004
   -924163.75949   -554586.04447  22398629.2924   22398635.2514   22398628.1754
       200.0004        200.0004
  -1143120.22647   -791040.26845  25774270.9884   25774278.6634   25774270.3924
       147.0004        147.0004
   -948525.97449   -529114.60747  22130143.3064   22130150.1224   22130141.8664
       196.0004        195.0004
 -11135595.57249  -8292904.83947  21452485.5944   21452488.3014   21452485.2094
       199.0004        199.0004
 -10689765.20548  -8165821.77847  22748513.5074   22748514.8124   22748513.5814
       191.0004        190.0004
 02  8  5  1  7  0.0030000  0  9G 3G25G31G20G 2G27G22G 1G13
 -10177699.15548  -7771897.05246  21796816.7634   21796819.6664   21796816.2084
       178.0004        180.0004
  23980975.23347  19362726.87745  24958366.6094   24958369.0644   24958364.4524
       149.0004        150.0004
  -7358302.75848  -5718156.47546  23311827.8964   23311834.2504   23311828.3664
       172.0004        172.0004
  14714836.72347  11824710.51545  25611929.6344   25611938.7924   25611929.7844
       143.0004        143.0004
   -854185.95248   -500057.80947  22411946.9584   22411951.6014   22411946.7054
       191.0004        193.0004
  -1184422.64647   -823223.91845  25766416.1574   25766418.2314   25766414.3664
       150.0004        150.0004
   -840389.27248   -444852.19147  22150725.3574   22150728.4804   22150724.7804
       190.0004        191.0004
 -11105377.52349  -8269358.31147  21458236.1424   21458238.3674   21458235.4784
       201.0004        201.0004
 -10715172.61248  -8185619.72047  22743678.8634   22743680.7754   22743678.1754
       191.0004        191.0004
 02  8  5  1  7 30.0030000  0  9G 3G25G31G20G 2G27G22G 1G13
 -10174142.46848  -7769125.66046  21797492.5144   21797496.3934   21797490.3634
       188.0004        187.0004
  24085992.19947  19444558.26745  24978351.4384   24978354.1124   24978349.6334
       149.0004        149.0004
  -7425320.74648  -5770378.19246  23299069.9514   23299081.0334   23299071.2834
       167.0004        167.0004
  14836545.11547  11919548.12745  25635085.4914   25635099.0334   25635087.9264
       141.0004        141.0004
   -784063.65549   -445417.11047  22425289.6714   22425295.5474   22425288.2434
       201.0004        202.0004
  -1225816.82047   -855479.05645  25758533.9334   25758540.4794   25758532.8224
       145.0004        146.0004
   -732069.70649   -360447.41447  22171334.2464   22171341.0634   22171332.4924
       197.0004        197.0004
 -11074607.91249  -8245381.99147  21464091.4484   21464093.4074   21464090.1914
       199.0004        199.0004
 -10740148.44448  -8205081.37347  22738925.5194   22738927.7984   22738924.4754
       188.0004        188.0004
 02  8  5  1  8  0.0030000  0  9G 3G25G31G20G 2G27G22G 1G13
 -10169996.37948  -7765894.85047  21798278.2684   21798284.9044   21798278.3894
       194.0004        194.0004
  24191207.92047  19526544.43645  24998371.3114   24998375.4074   24998369.9964
       151.0004        150.0004
  -7492064.20148  -5822386.00446  23286372.7044   23286378.9884   23286370.3344
       166.0004        166.0004
  14958240.91147  12014375.97645  25658252.9214   25658258.8514   25658249.3134
       142.0004        141.0004
   -713755.01948   -390631.11747  22438670.6814   22438674.7984   22438669.8854
       189.0004        192.0004
  -1267259.21547   -887771.84045  25750646.2534   25750655.6544   25750647.0954
       149.0004        148.0004
   -623526.27248   -275868.06947  22191991.9344   22191996.3714   22191991.7224
       193.0004        195.0004
 -11043242.76249  -8220941.60147  21470057.8124   21470062.0674   21470056.4034
       196.0004        196.0004
 -10764647.54148  -8224171.53946  22734261.5194   22734265.7494   22734260.1354
       185.0004        185.0004
 02  8  5  1  8 30.0030000  0  9G 3G25G31G20G 2G27G22G 1G13
 -10165260.31748  -7762204.34547  21799181.1484   21799186.6304   21799181.9224
       190.0004        190.0004
  24296621.61647  19608684.90145  25018426.2034   25018435.9814   25018427.1794
       152.0004        152.0004
  -7558530.90548  -5874178.12446  23273728.3494   23273730.2284   23273727.1444
       173.0004        172.0004
  15079920.49947  12109191.17545  25681406.8114   25681411.1214   25681404.4074
       138.0004        139.0004
   -643262.18349   -335701.66547  22452082.7034   22452088.8194   22452081.5964
       201.0004        201.0004
  -1308750.62847   -920102.79945  25742757.5284   25742761.0114   25742755.0084
       151.0004        151.0004
   -514761.54249   -191116.40547  22212687.5684   22212693.3964   22212686.1064
       198.0004        198.0004
 -11011282.30548  -8196037.31347  21476137.3534   21476143.8794   21476135.6564
       192.0004        192.0004
 -10788668.07248  -8242888.76946  22729686.3344   22729694.9274   22729686.3914
       182.0004        182.0004
 02  8  5  1  9  0.0030000  0  9G 3G25G31G20G 2G27G22G 1G13
 -10160004.95648  -7758109.29546  21800184.4634   21800186.7524   21800183.1154
       182.0004        183.0004
  24402161.38647  19690923.61445  25038505.8094   25038519.5994   25038508.0094
       155.0004        155.0004
  -7624789.72448  -5925808.23246  23261120.2854   23261121.9244   23261119.3804
       175.0004        175.0004
  15201509.07447  12203935.42645  25704542.0604   25704550.3954   25704543.7794
       140.0004        140.0004
   -572658.15048   -280685.52247  22465521.3634   22465524.0104   22465519.8184
       188.0004        191.0004
  -1350362.08147   -952527.26645  25734831.5864   25734841.3374   25734831.9924
       147.0004        147.0004
   -405849.44149   -106249.77447  22233413.3264   22233418.4114   22233413.1884
       196.0004        197.0004
 -10978797.69248  -8170724.57747  21482314.9764   21482325.9934   21482315.3494
       190.0004        190.0004
 -10812279.59648  -8261287.28846  22725191.8934   22725200.7794   22725193.1344
       182.0004        182.0004
 02  8  5  1  9 30.0030000  0  9G 3G25G31G20G 2G27G22G 1G13
 -10154157.15548  -7753552.56647  21801293.3454   21801299.1464   21801292.4874
       192.0004        192.0004
  24507899.56147  19773316.94545  25058628.8114   25058639.4244   25058629.4474
       154.0004        154.0004
  -7690765.54948  -5977217.83546  23248562.4254   23248567.4064   23248562.7034
       172.0004        173.0004
  15323076.08847  12298662.87745  25727678.6284   25727682.7824   25727675.6134
       138.0004        138.0004
   -501872.11249   -225527.55847  22478988.0264   22478994.5744   22478987.3464
       200.0004        201.0004
  -1392021.12347   -984988.83545  25726906.0364   25726913.1594   25726905.2274
       146.0004        146.0004
   -296719.60849    -21213.61347  22254181.7614   22254185.4294   22254179.5444
       196.0004        196.0004
 -10945716.00348  -8144946.59347  21488612.4054   21488620.8764   21488613.0494
       192.0004        192.0004
 -10835407.59048  -8279309.04146  22720793.5414   22720799.7374   22720793.6284
       183.0004        183.0004
